Wetterdaten: Donnerstag, 02.01.2014
Datum Zeit Temp. Aussen +5cm Feuchte Auss Luftdruck Regen Sonnenschein Regendauer UV Solar Windben
02.01.2014 00:00 9,3 C 7,2 C 84 % 998,8 hPa 0,0 l/m 0 min 0 min 0,0 UV-I 0 W/m 20,6 km/h (4 Bft)
02.01.2014 00:02 9,3 C 7,2 C 84 % 998,7 hPa 0,0 l/m 0 min 0 min 0,0 UV-I 0 W/m 10,3 km/h (2 Bft)
02.01.2014 00:04 9,4 C 7,2 C 84 % 998,7 hPa 0,0 l/m 0 min 0 min 0,0 UV-I 0 W/m 20,6 km/h (4 Bft)
02.01.2014 00:06 9,4 C 7,2 C 84 % 998,7 hPa 0,0 l/m 0 min 0 min 0,0 UV-I 0 W/m 18,0 km/h (3 Bft)
02.01.2014 00:08 9,4 C 7,2 C 84 % 998,6 hPa 0,0 l/m 0 min 0 min 0,0 UV-I 0 W/m 12,9 km/h (3 Bft)
02.01.2014 00:10 9,4 C 7,2 C 84 % 998,7 hPa 0,0 l/m 0 min 0 min 0,0 UV-I 0 W/m 23,2 km/h (4 Bft)
02.01.2014 00:12 9,4 C 7,2 C 84 % 998,6 hPa 0,0 l/m 0 min 0 min 0,0 UV-I 0 W/m 23,2 km/h (4 Bft)
02.01.2014 00:14 9,4 C 7,2 C 84 % 998,6 hPa 0,0 l/m 0 min 0 min 0,0 UV-I 0 W/m 23,2 km/h (4 Bft)
02.01.2014 00:16 9,4 C 7,2 C 84 % 998,5 hPa 0,0 l/m 0 min 0 min 0,0 UV-I 0 W/m 20,6 km/h (4 Bft)
02.01.2014 00:18 9,4 C 7,2 C 84 % 998,6 hPa 0,0 l/m 0 min 0 min 0,0 UV-I 0 W/m 38,6 km/h (5 Bft)
02.01.2014 00:20 9,4 C 7,8 C 84 % 998,6 hPa 0,0 l/m 0 min 0 min 0,0 UV-I 0 W/m 23,2 km/h (4 Bft)
02.01.2014 00:22 9,5 C 7,8 C 84 % 998,6 hPa 0,0 l/m 0 min 0 min 0,0 UV-I 0 W/m 25,7 km/h (4 Bft)
02.01.2014 00:24 9,5 C 7,8 C 84 % 998,5 hPa 0,0 l/m 0 min 0 min 0,0 UV-I 0 W/m 23,2 km/h (4 Bft)
02.01.2014 00:26 9,5 C 7,2 C 84 % 998,5 hPa 0,0 l/m 0 min 0 min 0,0 UV-I 0 W/m 28,3 km/h (4 Bft)
02.01.2014 00:28 9,5 C 7,2 C 84 % 998,4 hPa 0,0 l/m 0 min 2 min 0,0 UV-I 0 W/m 25,7 km/h (4 Bft)
02.01.2014 00:30 9,5 C 7,2 C 84 % 998,4 hPa 0,0 l/m 0 min 2 min 0,0 UV-I 0 W/m 25,7 km/h (4 Bft)
02.01.2014 00:32 9,5 C 7,2 C 84 % 998,4 hPa 0,0 l/m 0 min 2 min 0,0 UV-I 0 W/m 20,6 km/h (4 Bft)
02.01.2014 00:34 9,5 C 7,2 C 84 % 998,2 hPa 0,0 l/m 0 min 2 min 0,0 UV-I 0 W/m 33,5 km/h (5 Bft)
02.01.2014 00:36 9,5 C 7,2 C 84 % 998,3 hPa 0,0 l/m 0 min 2 min 0,0 UV-I 0 W/m 18,0 km/h (3 Bft)
02.01.2014 00:38 9,4 C 6,7 C 85 % 998,2 hPa 0,0 l/m 0 min 2 min 0,0 UV-I 0 W/m 23,2 km/h (4 Bft)
02.01.2014 00:40 9,4 C 6,7 C 85 % 998,2 hPa 0,0 l/m 0 min 2 min 0,0 UV-I 0 W/m 30,9 km/h (5 Bft)
02.01.2014 00:42 9,4 C 6,7 C 85 % 998,2 hPa 0,0 l/m 0 min 2 min 0,0 UV-I 0 W/m 20,6 km/h (4 Bft)
02.01.2014 00:44 9,4 C 6,7 C 85 % 998,1 hPa 0,2 l/m 0 min 2 min 0,0 UV-I 0 W/m 28,3 km/h (4 Bft)
02.01.2014 00:46 9,4 C 6,7 C 86 % 998,2 hPa 0,0 l/m 0 min 2 min 0,0 UV-I 0 W/m 28,3 km/h (4 Bft)
02.01.2014 00:48 9,3 C 6,7 C 86 % 998,1 hPa 0,0 l/m 0 min 2 min 0,0 UV-I 0 W/m 15,4 km/h (3 Bft)
02.01.2014 00:50 9,3 C 6,7 C 87 % 998,1 hPa 0,0 l/m 0 min 2 min 0,0 UV-I 0 W/m 28,3 km/h (4 Bft)
02.01.2014 00:52 9,2 C 6,7 C 87 % 998,1 hPa 0,0 l/m 0 min 2 min 0,0 UV-I 0 W/m 23,2 km/h (4 Bft)
02.01.2014 00:54 9,2 C 6,7 C 87 % 998,1 hPa 0,0 l/m 0 min 2 min 0,0 UV-I 0 W/m 18,0 km/h (3 Bft)
02.01.2014 00:56 9,2 C 6,7 C 87 % 998,1 hPa 0,0 l/m 0 min 0 min 0,0 UV-I 0 W/m 15,4 km/h (3 Bft)
02.01.2014 00:58 9,2 C 6,7 C 87 % 998,1 hPa 0,0 l/m 0 min 2 min 0,0 UV-I 0 W/m 23,2 km/h (4 Bft)
02.01.2014 01:00 9,2 C 6,7 C 87 % 998,1 hPa 0,0 l/m 0 min 2 min 0,0 UV-I 0 W/m 18,0 km/h (3 Bft)
02.01.2014 01:02 9,2 C 6,7 C 87 % 998,1 hPa 0,0 l/m 0 min 2 min 0,0 UV-I 0 W/m 20,6 km/h (4 Bft)
02.01.2014 01:04 9,2 C 6,7 C 87 % 998,0 hPa 0,0 l/m 0 min 2 min 0,0 UV-I 0 W/m 25,7 km/h (4 Bft)
02.01.2014 01:06 9,2 C 6,7 C 87 % 997,9 hPa 0,0 l/m 0 min 2 min 0,0 UV-I 0 W/m 18,0 km/h (3 Bft)
02.01.2014 01:08 9,2 C 6,7 C 87 % 997,9 hPa 0,0 l/m 0 min 2 min 0,0 UV-I 0 W/m 7,7 km/h (2 Bft)
02.01.2014 01:10 9,2 C 6,7 C 88 % 997,8 hPa 0,0 l/m 0 min 2 min 0,0 UV-I 0 W/m 15,4 km/h (3 Bft)
02.01.2014 01:12 9,2 C 6,7 C 88 % 997,8 hPa 0,0 l/m 0 min 2 min 0,0 UV-I 0 W/m 7,7 km/h (2 Bft)
02.01.2014 01:14 9,2 C 6,7 C 88 % 997,7 hPa 0,0 l/m 0 min 2 min 0,0 UV-I 0 W/m 20,6 km/h (4 Bft)
02.01.2014 01:16 9,2 C 6,7 C 88 % 997,8 hPa 0,0 l/m 0 min 2 min 0,0 UV-I 0 W/m 15,4 km/h (3 Bft)
02.01.2014 01:18 9,2 C 6,7 C 88 % 997,7 hPa 0,0 l/m 0 min 2 min 0,0 UV-I 0 W/m 18,0 km/h (3 Bft)
02.01.2014 01:20 9,2 C 6,7 C 88 % 997,6 hPa 0,0 l/m 0 min 2 min 0,0 UV-I 0 W/m 18,0 km/h (3 Bft)
02.01.2014 01:22 9,1 C 6,7 C 88 % 997,7 hPa 0,0 l/m 0 min 2 min 0,0 UV-I 0 W/m 12,9 km/h (3 Bft)
02.01.2014 01:24 9,1 C 6,7 C 88 % 997,6 hPa 0,0 l/m 0 min 2 min 0,0 UV-I 0 W/m 25,7 km/h (4 Bft)
02.01.2014 01:26 9,1 C 6,7 C 88 % 997,6 hPa 0,0 l/m 0 min 2 min 0,0 UV-I 0 W/m 12,9 km/h (3 Bft)
02.01.2014 01:28 9,1 C 6,7 C 88 % 997,6 hPa 0,2 l/m 0 min 2 min 0,0 UV-I 0 W/m 18,0 km/h (3 Bft)
02.01.2014 01:30 9,1 C 6,7 C 88 % 997,5 hPa 0,0 l/m 0 min 2 min 0,0 UV-I 0 W/m 20,6 km/h (4 Bft)
02.01.2014 01:32 9,1 C 6,7 C 89 % 997,5 hPa 0,0 l/m 0 min 2 min 0,0 UV-I 0 W/m 15,4 km/h (3 Bft)
02.01.2014 01:34 9,0 C 6,7 C 89 % 997,5 hPa 0,0 l/m 0 min 2 min 0,0 UV-I 0 W/m 20,6 km/h (4 Bft)
02.01.2014 01:36 9,0 C 6,7 C 89 % 997,5 hPa 0,0 l/m 0 min 2 min 0,0 UV-I 0 W/m 18,0 km/h (3 Bft)
02.01.2014 01:38 9,0 C 6,7 C 89 % 997,5 hPa 0,0 l/m 0 min 0 min 0,0 UV-I 0 W/m 18,0 km/h (3 Bft)
02.01.2014 01:40 9,0 C 6,7 C 89 % 997,4 hPa 0,0 l/m 0 min 2 min 0,0 UV-I 0 W/m 18,0 km/h (3 Bft)
02.01.2014 01:42 9,0 C 6,7 C 89 % 997,5 hPa 0,0 l/m 0 min 0 min 0,0 UV-I 0 W/m 12,9 km/h (3 Bft)
02.01.2014 01:44 9,0 C 6,7 C 89 % 997,4 hPa 0,0 l/m 0 min 2 min 0,0 UV-I 0 W/m 18,0 km/h (3 Bft)
02.01.2014 01:46 9,0 C 6,7 C 89 % 997,4 hPa 0,0 l/m 0 min 0 min 0,0 UV-I 0 W/m 18,0 km/h (3 Bft)
02.01.2014 01:48 9,1 C 6,7 C 88 % 997,4 hPa 0,0 l/m 0 min 0 min 0,0 UV-I 0 W/m 12,9 km/h (3 Bft)
02.01.2014 01:50 9,1 C 6,7 C 88 % 997,4 hPa 0,0 l/m 0 min 0 min 0,0 UV-I 0 W/m 12,9 km/h (3 Bft)
02.01.2014 01:52 9,1 C 6,7 C 88 % 997,4 hPa 0,0 l/m 0 min 2 min 0,0 UV-I 0 W/m 7,7 km/h (2 Bft)
02.01.2014 01:54 9,1 C 6,7 C 89 % 997,4 hPa 0,0 l/m 0 min 2 min 0,0 UV-I 0 W/m 18,0 km/h (3 Bft)
02.01.2014 01:56 9,1 C 6,7 C 88 % 997,3 hPa 0,0 l/m 0 min 2 min 0,0 UV-I 0 W/m 20,6 km/h (4 Bft)
02.01.2014 01:58 9,2 C 6,7 C 88 % 997,3 hPa 0,0 l/m 0 min 0 min 0,0 UV-I 0 W/m 15,4 km/h (3 Bft)
02.01.2014 02:00 9,2 C 6,7 C 88 % 997,3 hPa 0,0 l/m 0 min 0 min 0,0 UV-I 0 W/m 15,4 km/h (3 Bft)
02.01.2014 02:02 9,2 C 6,7 C 88 % 997,4 hPa 0,0 l/m 0 min 0 min 0,0 UV-I 0 W/m 18,0 km/h (3 Bft)
02.01.2014 02:04 9,2 C 6,7 C 88 % 997,3 hPa 0,0 l/m 0 min 0 min 0,0 UV-I 0 W/m 15,4 km/h (3 Bft)
02.01.2014 02:06 9,2 C 6,7 C 88 % 997,4 hPa 0,0 l/m 0 min 0 min 0,0 UV-I 0 W/m 23,2 km/h (4 Bft)
02.01.2014 02:08 9,2 C 6,7 C 88 % 997,3 hPa 0,0 l/m 0 min 2 min 0,0 UV-I 0 W/m 18,0 km/h (3 Bft)
02.01.2014 02:10 9,3 C 6,7 C 87 % 997,4 hPa 0,0 l/m 0 min 2 min 0,0 UV-I 0 W/m 23,2 km/h (4 Bft)
02.01.2014 02:12 9,3 C 6,7 C 87 % 997,4 hPa 0,0 l/m 0 min 2 min 0,0 UV-I 0 W/m 12,9 km/h (3 Bft)
02.01.2014 02:14 9,3 C 6,7 C 88 % 997,3 hPa 0,0 l/m 0 min 2 min 0,0 UV-I 0 W/m 10,3 km/h (2 Bft)
02.01.2014 02:16 9,3 C 6,7 C 88 % 997,3 hPa 0,0 l/m 0 min 2 min 0,0 UV-I 0 W/m 18,0 km/h (3 Bft)
02.01.2014 02:18 9,3 C 6,7 C 87 % 997,3 hPa 0,0 l/m 0 min 2 min 0,0 UV-I 0 W/m 15,4 km/h (3 Bft)
02.01.2014 02:20 9,3 C 6,7 C 87 % 997,2 hPa 0,0 l/m 0 min 2 min 0,0 UV-I 0 W/m 15,4 km/h (3 Bft)
02.01.2014 02:22 9,3 C 6,7 C 87 % 997,3 hPa 0,0 l/m 0 min 2 min 0,0 UV-I 0 W/m 28,3 km/h (4 Bft)
02.01.2014 02:24 9,4 C 6,7 C 87 % 997,3 hPa 0,0 l/m 0 min 2 min 0,0 UV-I 0 W/m 20,6 km/h (4 Bft)
02.01.2014 02:26 9,4 C 6,7 C 87 % 997,3 hPa 0,0 l/m 0 min 2 min 0,0 UV-I 0 W/m 20,6 km/h (4 Bft)
02.01.2014 02:28 9,4 C 6,7 C 87 % 997,3 hPa 0,0 l/m 0 min 2 min 0,0 UV-I 0 W/m 12,9 km/h (3 Bft)
02.01.2014 02:30 9,4 C 6,7 C 87 % 997,3 hPa 0,0 l/m 0 min 2 min 0,0 UV-I 0 W/m 23,2 km/h (4 Bft)
02.01.2014 02:32 9,4 C 6,7 C 87 % 997,2 hPa 0,0 l/m 0 min 2 min 0,0 UV-I 0 W/m 23,2 km/h (4 Bft)
02.01.2014 02:34 9,4 C 6,7 C 87 % 997,2 hPa 0,0 l/m 0 min 2 min 0,0 UV-I 0 W/m 30,9 km/h (5 Bft)
02.01.2014 02:36 9,4 C 6,7 C 87 % 997,2 hPa 0,0 l/m 0 min 2 min 0,0 UV-I 0 W/m 18,0 km/h (3 Bft)
02.01.2014 02:38 9,4 C 6,7 C 87 % 997,2 hPa 0,0 l/m 0 min 2 min 0,0 UV-I 0 W/m 18,0 km/h (3 Bft)
02.01.2014 02:40 9,4 C 6,7 C 87 % 997,1 hPa 0,0 l/m 0 min 2 min 0,0 UV-I 0 W/m 23,2 km/h (4 Bft)
02.01.2014 02:42 9,4 C 6,7 C 87 % 997,1 hPa 0,0 l/m 0 min 2 min 0,0 UV-I 0 W/m 15,4 km/h (3 Bft)
02.01.2014 02:44 9,4 C 6,7 C 87 % 997,1 hPa 0,0 l/m 0 min 2 min 0,0 UV-I 0 W/m 28,3 km/h (4 Bft)
02.01.2014 02:46 9,4 C 6,7 C 86 % 997,1 hPa 0,0 l/m 0 min 2 min 0,0 UV-I 0 W/m 23,2 km/h (4 Bft)
02.01.2014 02:48 9,4 C 6,7 C 86 % 997,1 hPa 0,0 l/m 0 min 2 min 0,0 UV-I 0 W/m 20,6 km/h (4 Bft)
02.01.2014 02:50 9,4 C 6,7 C 86 % 997,1 hPa 0,0 l/m 0 min 2 min 0,0 UV-I 0 W/m 23,2 km/h (4 Bft)
02.01.2014 02:52 9,4 C 6,7 C 87 % 997,1 hPa 0,0 l/m 0 min 2 min 0,0 UV-I 0 W/m 20,6 km/h (4 Bft)
02.01.2014 02:54 9,4 C 6,7 C 87 % 997,1 hPa 0,0 l/m 0 min 2 min 0,0 UV-I 0 W/m 18,0 km/h (3 Bft)
02.01.2014 02:56 9,4 C 6,7 C 87 % 997,1 hPa 0,0 l/m 0 min 2 min 0,0 UV-I 0 W/m 18,0 km/h (3 Bft)
02.01.2014 02:58 9,4 C 6,7 C 87 % 997,2 hPa 0,0 l/m 0 min 2 min 0,0 UV-I 0 W/m 23,2 km/h (4 Bft)
02.01.2014 03:00 9,4 C 6,7 C 87 % 997,2 hPa 0,0 l/m 0 min 2 min 0,0 UV-I 0 W/m 20,6 km/h (4 Bft)
02.01.2014 03:02 9,4 C 6,7 C 87 % 997,2 hPa 0,0 l/m 0 min 2 min 0,0 UV-I 0 W/m 15,4 km/h (3 Bft)
02.01.2014 03:04 9,4 C 6,7 C 87 % 997,1 hPa 0,0 l/m 0 min 2 min 0,0 UV-I 0 W/m 28,3 km/h (4 Bft)
02.01.2014 03:06 9,4 C 6,7 C 87 % 997,1 hPa 0,0 l/m 0 min 2 min 0,0 UV-I 0 W/m 28,3 km/h (4 Bft)
02.01.2014 03:08 9,3 C 6,7 C 87 % 997,1 hPa 0,0 l/m 0 min 2 min 0,0 UV-I 0 W/m 23,2 km/h (4 Bft)
02.01.2014 03:10 9,3 C 6,7 C 87 % 997,1 hPa 0,0 l/m 0 min 2 min 0,0 UV-I 0 W/m 20,6 km/h (4 Bft)
02.01.2014 03:12 9,3 C 6,7 C 88 % 997,1 hPa 0,0 l/m 0 min 2 min 0,0 UV-I 0 W/m 23,2 km/h (4 Bft)
02.01.2014 03:14 9,3 C 6,7 C 88 % 997,0 hPa 0,2 l/m 0 min 2 min 0,0 UV-I 0 W/m 23,2 km/h (4 Bft)
02.01.2014 03:16 9,2 C 6,7 C 88 % 997,0 hPa 0,0 l/m 0 min 2 min 0,0 UV-I 0 W/m 18,0 km/h (3 Bft)
02.01.2014 03:18 9,2 C 6,7 C 88 % 997,0 hPa 0,0 l/m 0 min 2 min 0,0 UV-I 0 W/m 10,3 km/h (2 Bft)
02.01.2014 03:20 9,2 C 6,7 C 88 % 997,0 hPa 0,0 l/m 0 min 2 min 0,0 UV-I 0 W/m 18,0 km/h (3 Bft)
02.01.2014 03:22 9,2 C 6,7 C 89 % 996,9 hPa 0,0 l/m 0 min 2 min 0,0 UV-I 0 W/m 20,6 km/h (4 Bft)
02.01.2014 03:24 9,2 C 6,7 C 89 % 996,9 hPa 0,0 l/m 0 min 2 min 0,0 UV-I 0 W/m 20,6 km/h (4 Bft)
02.01.2014 03:26 9,1 C 6,7 C 89 % 996,8 hPa 0,0 l/m 0 min 2 min 0,0 UV-I 0 W/m 18,0 km/h (3 Bft)
02.01.2014 03:28 9,1 C 6,7 C 89 % 996,7 hPa 0,0 l/m 0 min 2 min 0,0 UV-I 0 W/m 18,0 km/h (3 Bft)
02.01.2014 03:30 9,1 C 6,7 C 89 % 996,8 hPa 0,0 l/m 0 min 2 min 0,0 UV-I 0 W/m 20,6 km/h (4 Bft)
02.01.2014 03:32 9,0 C 6,7 C 89 % 996,7 hPa 0,0 l/m 0 min 0 min 0,0 UV-I 0 W/m 10,3 km/h (2 Bft)
02.01.2014 03:34 9,0 C 6,7 C 90 % 996,7 hPa 0,0 l/m 0 min 2 min 0,0 UV-I 0 W/m 23,2 km/h (4 Bft)
02.01.2014 03:36 9,0 C 6,7 C 89 % 996,6 hPa 0,0 l/m 0 min 0 min 0,0 UV-I 0 W/m 23,2 km/h (4 Bft)
02.01.2014 03:38 8,9 C 6,7 C 90 % 996,6 hPa 0,0 l/m 0 min 2 min 0,0 UV-I 0 W/m 10,3 km/h (2 Bft)
02.01.2014 03:40 8,9 C 6,7 C 90 % 996,7 hPa 0,0 l/m 0 min 0 min 0,0 UV-I 0 W/m 15,4 km/h (3 Bft)
02.01.2014 03:42 8,9 C 6,7 C 90 % 996,6 hPa 0,0 l/m 0 min 0 min 0,0 UV-I 0 W/m 23,2 km/h (4 Bft)
02.01.2014 03:44 8,9 C 6,7 C 90 % 996,7 hPa 0,0 l/m 0 min 0 min 0,0 UV-I 0 W/m 25,7 km/h (4 Bft)
02.01.2014 03:46 8,8 C 6,7 C 90 % 996,7 hPa 0,0 l/m 0 min 0 min 0,0 UV-I 0 W/m 25,7 km/h (4 Bft)
02.01.2014 03:48 8,8 C 6,7 C 90 % 996,6 hPa 0,0 l/m 0 min 0 min 0,0 UV-I 0 W/m 23,2 km/h (4 Bft)
02.01.2014 03:50 8,8 C 6,7 C 90 % 996,7 hPa 0,0 l/m 0 min 2 min 0,0 UV-I 0 W/m 12,9 km/h (3 Bft)
02.01.2014 03:52 8,8 C 6,7 C 90 % 996,7 hPa 0,0 l/m 0 min 0 min 0,0 UV-I 0 W/m 12,9 km/h (3 Bft)
02.01.2014 03:54 8,8 C 6,7 C 90 % 996,7 hPa 0,0 l/m 0 min 0 min 0,0 UV-I 0 W/m 15,4 km/h (3 Bft)
02.01.2014 03:56 8,8 C 6,7 C 90 % 996,6 hPa 0,0 l/m 0 min 0 min 0,0 UV-I 0 W/m 28,3 km/h (4 Bft)
02.01.2014 03:58 8,8 C 6,7 C 90 % 996,6 hPa 0,0 l/m 0 min 2 min 0,0 UV-I 0 W/m 18,0 km/h (3 Bft)
02.01.2014 04:00 8,8 C 6,7 C 90 % 996,6 hPa 0,0 l/m 0 min 0 min 0,0 UV-I 0 W/m 30,9 km/h (5 Bft)
02.01.2014 04:02 8,8 C 6,7 C 90 % 996,5 hPa 0,0 l/m 0 min 0 min 0,0 UV-I 0 W/m 23,2 km/h (4 Bft)
02.01.2014 04:04 8,8 C 6,7 C 90 % 996,6 hPa 0,0 l/m 0 min 0 min 0,0 UV-I 0 W/m 23,2 km/h (4 Bft)
02.01.2014 04:06 8,8 C 6,7 C 90 % 996,6 hPa 0,0 l/m 0 min 0 min 0,0 UV-I 0 W/m 23,2 km/h (4 Bft)
02.01.2014 04:08 8,9 C 6,7 C 90 % 996,5 hPa 0,0 l/m 0 min 0 min 0,0 UV-I 0 W/m 20,6 km/h (4 Bft)
02.01.2014 04:10 8,9 C 6,7 C 90 % 996,4 hPa 0,0 l/m 0 min 2 min 0,0 UV-I 0 W/m 23,2 km/h (4 Bft)
02.01.2014 04:12 8,9 C 6,7 C 89 % 996,3 hPa 0,0 l/m 0 min 2 min 0,0 UV-I 0 W/m 28,3 km/h (4 Bft)
02.01.2014 04:14 8,9 C 6,7 C 90 % 996,4 hPa 0,0 l/m 0 min 0 min 0,0 UV-I 0 W/m 10,3 km/h (2 Bft)
02.01.2014 04:16 8,9 C 6,7 C 89 % 996,3 hPa 0,0 l/m 0 min 0 min 0,0 UV-I 0 W/m 20,6 km/h (4 Bft)
02.01.2014 04:18 8,9 C 6,7 C 89 % 996,3 hPa 0,0 l/m 0 min 0 min 0,0 UV-I 0 W/m 18,0 km/h (3 Bft)
02.01.2014 04:20 8,9 C 6,7 C 89 % 996,3 hPa 0,0 l/m 0 min 0 min 0,0 UV-I 0 W/m 20,6 km/h (4 Bft)
02.01.2014 04:22 8,9 C 6,7 C 89 % 996,2 hPa 0,0 l/m 0 min 2 min 0,0 UV-I 0 W/m 23,2 km/h (4 Bft)
02.01.2014 04:24 8,9 C 6,7 C 89 % 996,2 hPa 0,0 l/m 0 min 2 min 0,0 UV-I 0 W/m 28,3 km/h (4 Bft)
02.01.2014 04:26 9,0 C 6,7 C 89 % 996,1 hPa 0,0 l/m 0 min 0 min 0,0 UV-I 0 W/m 23,2 km/h (4 Bft)
02.01.2014 04:28 9,0 C 6,7 C 89 % 996,2 hPa 0,0 l/m 0 min 0 min 0,0 UV-I 0 W/m 12,9 km/h (3 Bft)
02.01.2014 04:30 9,0 C 6,7 C 89 % 996,2 hPa 0,0 l/m 0 min 2 min 0,0 UV-I 0 W/m 18,0 km/h (3 Bft)
02.01.2014 04:32 9,0 C 6,7 C 89 % 996,1 hPa 0,0 l/m 0 min 0 min 0,0 UV-I 0 W/m 15,4 km/h (3 Bft)
02.01.2014 04:34 9,0 C 6,7 C 89 % 996,1 hPa 0,0 l/m 0 min 0 min 0,0 UV-I 0 W/m 23,2 km/h (4 Bft)
02.01.2014 04:36 9,1 C 6,7 C 89 % 996,2 hPa 0,0 l/m 0 min 0 min 0,0 UV-I 0 W/m 28,3 km/h (4 Bft)
02.01.2014 04:38 9,0 C 6,7 C 89 % 996,2 hPa 0,0 l/m 0 min 0 min 0,0 UV-I 0 W/m 20,6 km/h (4 Bft)
02.01.2014 04:40 9,1 C 6,7 C 89 % 996,2 hPa 0,0 l/m 0 min 0 min 0,0 UV-I 0 W/m 23,2 km/h (4 Bft)
02.01.2014 04:42 9,1 C 6,7 C 88 % 996,1 hPa 0,0 l/m 0 min 0 min 0,0 UV-I 0 W/m 15,4 km/h (3 Bft)
02.01.2014 04:44 9,1 C 6,7 C 88 % 996,0 hPa 0,0 l/m 0 min 0 min 0,0 UV-I 0 W/m 12,9 km/h (3 Bft)
02.01.2014 04:46 9,1 C 6,7 C 88 % 996,0 hPa 0,0 l/m 0 min 0 min 0,0 UV-I 0 W/m 15,4 km/h (3 Bft)
02.01.2014 04:48 9,1 C 6,7 C 88 % 996,0 hPa 0,0 l/m 0 min 0 min 0,0 UV-I 0 W/m 10,3 km/h (2 Bft)
02.01.2014 04:50 9,1 C 6,7 C 88 % 996,0 hPa 0,0 l/m 0 min 0 min 0,0 UV-I 0 W/m 20,6 km/h (4 Bft)
02.01.2014 04:52 9,1 C 6,7 C 88 % 996,0 hPa 0,0 l/m 0 min 0 min 0,0 UV-I 0 W/m 15,4 km/h (3 Bft)
02.01.2014 04:54 9,1 C 6,7 C 88 % 996,1 hPa 0,0 l/m 0 min 0 min 0,0 UV-I 0 W/m 7,7 km/h (2 Bft)
02.01.2014 04:56 9,1 C 6,7 C 88 % 996,0 hPa 0,0 l/m 0 min 0 min 0,0 UV-I 0 W/m 18,0 km/h (3 Bft)
02.01.2014 04:58 9,1 C 6,7 C 88 % 996,0 hPa 0,0 l/m 0 min 0 min 0,0 UV-I 0 W/m 20,6 km/h (4 Bft)
02.01.2014 05:00 9,1 C 6,7 C 88 % 995,9 hPa 0,0 l/m 0 min 0 min 0,0 UV-I 0 W/m 12,9 km/h (3 Bft)
02.01.2014 05:02 9,1 C 6,7 C 88 % 995,9 hPa 0,0 l/m 0 min 0 min 0,0 UV-I 0 W/m 15,4 km/h (3 Bft)
02.01.2014 05:04 9,1 C 6,7 C 88 % 995,9 hPa 0,0 l/m 0 min 0 min 0,0 UV-I 0 W/m 20,6 km/h (4 Bft)
02.01.2014 05:06 9,1 C 7,2 C 88 % 996,0 hPa 0,0 l/m 0 min 0 min 0,0 UV-I 0 W/m 12,9 km/h (3 Bft)
02.01.2014 05:08 9,1 C 7,2 C 88 % 996,0 hPa 0,0 l/m 0 min 0 min 0,0 UV-I 0 W/m 18,0 km/h (3 Bft)
02.01.2014 05:10 9,1 C 7,2 C 88 % 996,0 hPa 0,0 l/m 0 min 0 min 0,0 UV-I 0 W/m 23,2 km/h (4 Bft)
02.01.2014 05:12 9,1 C 7,2 C 88 % 995,9 hPa 0,0 l/m 0 min 0 min 0,0 UV-I 0 W/m 20,6 km/h (4 Bft)
02.01.2014 05:14 9,2 C 7,2 C 88 % 995,9 hPa 0,0 l/m 0 min 0 min 0,0 UV-I 0 W/m 20,6 km/h (4 Bft)
02.01.2014 05:16 9,2 C 7,2 C 88 % 996,0 hPa 0,0 l/m 0 min 0 min 0,0 UV-I 0 W/m 20,6 km/h (4 Bft)
02.01.2014 05:18 9,2 C 7,2 C 88 % 996,0 hPa 0,0 l/m 0 min 0 min 0,0 UV-I 0 W/m 15,4 km/h (3 Bft)
02.01.2014 05:20 9,2 C 7,2 C 88 % 996,0 hPa 0,0 l/m 0 min 0 min 0,0 UV-I 0 W/m 20,6 km/h (4 Bft)
02.01.2014 05:22 9,2 C 7,2 C 88 % 996,0 hPa 0,0 l/m 0 min 0 min 0,0 UV-I 0 W/m 20,6 km/h (4 Bft)
02.01.2014 05:24 9,2 C 7,2 C 88 % 996,0 hPa 0,0 l/m 0 min 0 min 0,0 UV-I 0 W/m 15,4 km/h (3 Bft)
02.01.2014 05:26 9,2 C 7,2 C 88 % 996,0 hPa 0,0 l/m 0 min 0 min 0,0 UV-I 0 W/m 18,0 km/h (3 Bft)
02.01.2014 05:28 9,2 C 7,2 C 88 % 996,0 hPa 0,0 l/m 0 min 0 min 0,0 UV-I 0 W/m 12,9 km/h (3 Bft)
02.01.2014 05:30 9,3 C 7,2 C 88 % 996,0 hPa 0,0 l/m 0 min 0 min 0,0 UV-I 0 W/m 28,3 km/h (4 Bft)
02.01.2014 05:32 9,3 C 7,2 C 88 % 995,9 hPa 0,0 l/m 0 min 0 min 0,0 UV-I 0 W/m 20,6 km/h (4 Bft)
02.01.2014 05:34 9,3 C 7,2 C 88 % 995,8 hPa 0,0 l/m 0 min 0 min 0,0 UV-I 0 W/m 20,6 km/h (4 Bft)
02.01.2014 05:36 9,3 C 7,2 C 88 % 995,9 hPa 0,0 l/m 0 min 0 min 0,0 UV-I 0 W/m 18,0 km/h (3 Bft)
02.01.2014 05:38 9,3 C 7,2 C 88 % 995,9 hPa 0,0 l/m 0 min 0 min 0,0 UV-I 0 W/m 18,0 km/h (3 Bft)
02.01.2014 05:40 9,3 C 7,2 C 88 % 995,9 hPa 0,0 l/m 0 min 2 min 0,0 UV-I 0 W/m 23,2 km/h (4 Bft)
02.01.2014 05:42 9,4 C 7,2 C 88 % 995,8 hPa 0,0 l/m 0 min 2 min 0,0 UV-I 0 W/m 23,2 km/h (4 Bft)
02.01.2014 05:44 9,4 C 7,2 C 88 % 995,8 hPa 0,0 l/m 0 min 2 min 0,0 UV-I 0 W/m 28,3 km/h (4 Bft)
02.01.2014 05:46 9,4 C 7,2 C 88 % 995,8 hPa 0,0 l/m 0 min 2 min 0,0 UV-I 0 W/m 23,2 km/h (4 Bft)
02.01.2014 05:48 9,4 C 7,2 C 88 % 995,7 hPa 0,0 l/m 0 min 2 min 0,0 UV-I 0 W/m 20,6 km/h (4 Bft)
02.01.2014 05:50 9,4 C 7,2 C 88 % 995,7 hPa 0,2 l/m 0 min 2 min 0,0 UV-I 0 W/m 25,7 km/h (4 Bft)
02.01.2014 05:52 9,4 C 7,2 C 88 % 995,8 hPa 0,0 l/m 0 min 0 min 0,0 UV-I 0 W/m 18,0 km/h (3 Bft)
02.01.2014 05:54 9,4 C 7,2 C 89 % 995,8 hPa 0,0 l/m 0 min 0 min 0,0 UV-I 0 W/m 18,0 km/h (3 Bft)
02.01.2014 05:56 9,4 C 7,2 C 89 % 995,8 hPa 0,0 l/m 0 min 0 min 0,0 UV-I 0 W/m 28,3 km/h (4 Bft)
02.01.2014 05:58 9,3 C 7,2 C 89 % 995,8 hPa 0,0 l/m 0 min 0 min 0,0 UV-I 0 W/m 18,0 km/h (3 Bft)
02.01.2014 06:00 9,3 C 7,2 C 89 % 995,8 hPa 0,0 l/m 0 min 0 min 0,0 UV-I 0 W/m 15,4 km/h (3 Bft)
02.01.2014 06:02 9,3 C 7,2 C 89 % 995,8 hPa 0,0 l/m 0 min 0 min 0,0 UV-I 0 W/m 15,4 km/h (3 Bft)
02.01.2014 06:04 9,3 C 7,2 C 89 % 995,8 hPa 0,0 l/m 0 min 0 min 0,0 UV-I 0 W/m 20,6 km/h (4 Bft)
02.01.2014 06:06 9,3 C 7,2 C 89 % 995,8 hPa 0,0 l/m 0 min 0 min 0,0 UV-I 0 W/m 15,4 km/h (3 Bft)
02.01.2014 06:08 9,3 C 7,2 C 89 % 995,8 hPa 0,0 l/m 0 min 0 min 0,0 UV-I 0 W/m 18,0 km/h (3 Bft)
02.01.2014 06:10 9,3 C 7,2 C 89 % 995,8 hPa 0,0 l/m 0 min 0 min 0,0 UV-I 0 W/m 15,4 km/h (3 Bft)
02.01.2014 06:12 9,3 C 7,2 C 89 % 995,8 hPa 0,0 l/m 0 min 0 min 0,0 UV-I 0 W/m 15,4 km/h (3 Bft)
02.01.2014 06:14 9,3 C 7,2 C 89 % 995,8 hPa 0,0 l/m 0 min 0 min 0,0 UV-I 0 W/m 15,4 km/h (3 Bft)
02.01.2014 06:16 9,3 C 7,2 C 89 % 995,8 hPa 0,0 l/m 0 min 0 min 0,0 UV-I 0 W/m 23,2 km/h (4 Bft)
02.01.2014 06:18 9,3 C 7,2 C 89 % 995,8 hPa 0,0 l/m 0 min 0 min 0,0 UV-I 0 W/m 20,6 km/h (4 Bft)
02.01.2014 06:20 9,3 C 7,2 C 89 % 995,7 hPa 0,0 l/m 0 min 0 min 0,0 UV-I 0 W/m 12,9 km/h (3 Bft)
02.01.2014 06:22 9,3 C 7,2 C 89 % 995,8 hPa 0,0 l/m 0 min 0 min 0,0 UV-I 0 W/m 18,0 km/h (3 Bft)
02.01.2014 06:24 9,4 C 7,2 C 89 % 995,8 hPa 0,0 l/m 0 min 0 min 0,0 UV-I 0 W/m 15,4 km/h (3 Bft)
02.01.2014 06:26 9,4 C 7,2 C 89 % 995,8 hPa 0,0 l/m 0 min 0 min 0,0 UV-I 0 W/m 18,0 km/h (3 Bft)
02.01.2014 06:28 9,4 C 7,2 C 89 % 995,9 hPa 0,0 l/m 0 min 0 min 0,0 UV-I 0 W/m 10,3 km/h (2 Bft)
02.01.2014 06:30 9,4 C 7,2 C 89 % 995,9 hPa 0,0 l/m 0 min 0 min 0,0 UV-I 0 W/m 5,1 km/h (1 Bft)
02.01.2014 06:32 9,4 C 7,2 C 89 % 995,9 hPa 0,0 l/m 0 min 0 min 0,0 UV-I 0 W/m 15,4 km/h (3 Bft)
02.01.2014 06:34 9,4 C 7,2 C 88 % 996,0 hPa 0,0 l/m 0 min 0 min 0,0 UV-I 0 W/m 25,7 km/h (4 Bft)
02.01.2014 06:36 9,4 C 7,2 C 88 % 996,0 hPa 0,0 l/m 0 min 0 min 0,0 UV-I 0 W/m 15,4 km/h (3 Bft)
02.01.2014 06:38 9,4 C 7,2 C 88 % 996,0 hPa 0,0 l/m 0 min 0 min 0,0 UV-I 0 W/m 12,9 km/h (3 Bft)
02.01.2014 06:40 9,5 C 7,2 C 88 % 996,0 hPa 0,0 l/m 0 min 2 min 0,0 UV-I 0 W/m 10,3 km/h (2 Bft)
02.01.2014 06:42 9,5 C 7,2 C 88 % 996,0 hPa 0,0 l/m 0 min 2 min 0,0 UV-I 0 W/m 12,9 km/h (3 Bft)
02.01.2014 06:44 9,5 C 7,2 C 88 % 995,9 hPa 0,0 l/m 0 min 2 min 0,0 UV-I 0 W/m 12,9 km/h (3 Bft)
02.01.2014 06:46 9,5 C 7,2 C 88 % 995,9 hPa 0,0 l/m 0 min 0 min 0,0 UV-I 0 W/m 12,9 km/h (3 Bft)
02.01.2014 06:48 9,5 C 7,2 C 88 % 995,9 hPa 0,0 l/m 0 min 2 min 0,0 UV-I 0 W/m 10,3 km/h (2 Bft)
02.01.2014 06:50 9,5 C 7,2 C 89 % 996,0 hPa 0,0 l/m 0 min 0 min 0,0 UV-I 0 W/m 10,3 km/h (2 Bft)
02.01.2014 06:52 9,5 C 7,2 C 89 % 995,9 hPa 0,0 l/m 0 min 0 min 0,0 UV-I 0 W/m 7,7 km/h (2 Bft)
02.01.2014 06:54 9,5 C 7,2 C 88 % 996,0 hPa 0,0 l/m 0 min 0 min 0,0 UV-I 0 W/m 18,0 km/h (3 Bft)
02.01.2014 06:56 9,5 C 7,2 C 88 % 996,0 hPa 0,0 l/m 0 min 0 min 0,0 UV-I 0 W/m 10,3 km/h (2 Bft)
02.01.2014 06:58 9,5 C 7,2 C 89 % 996,0 hPa 0,0 l/m 0 min 0 min 0,0 UV-I 0 W/m 10,3 km/h (2 Bft)
02.01.2014 07:00 9,5 C 7,2 C 88 % 996,0 hPa 0,0 l/m 0 min 0 min 0,0 UV-I 0 W/m 20,6 km/h (4 Bft)
02.01.2014 07:02 9,5 C 7,2 C 88 % 996,0 hPa 0,0 l/m 0 min 0 min 0,0 UV-I 0 W/m 20,6 km/h (4 Bft)
02.01.2014 07:04 9,5 C 7,2 C 88 % 995,9 hPa 0,0 l/m 0 min 0 min 0,0 UV-I 0 W/m 18,0 km/h (3 Bft)
02.01.2014 07:06 9,5 C 7,2 C 88 % 995,9 hPa 0,0 l/m 0 min 0 min 0,0 UV-I 0 W/m 20,6 km/h (4 Bft)
02.01.2014 07:08 9,5 C 7,2 C 88 % 996,0 hPa 0,0 l/m 0 min 0 min 0,0 UV-I 0 W/m 10,3 km/h (2 Bft)
02.01.2014 07:10 9,5 C 7,2 C 88 % 996,0 hPa 0,0 l/m 0 min 0 min 0,0 UV-I 0 W/m 15,4 km/h (3 Bft)
02.01.2014 07:12 9,5 C 7,2 C 88 % 996,0 hPa 0,0 l/m 0 min 0 min 0,0 UV-I 0 W/m 20,6 km/h (4 Bft)
02.01.2014 07:14 9,6 C 7,8 C 88 % 996,0 hPa 0,0 l/m 0 min 0 min 0,0 UV-I 0 W/m 30,9 km/h (5 Bft)
02.01.2014 07:16 9,6 C 7,8 C 88 % 996,0 hPa 0,0 l/m 0 min 0 min 0,0 UV-I 0 W/m 12,9 km/h (3 Bft)
02.01.2014 07:18 9,6 C 7,8 C 88 % 995,9 hPa 0,0 l/m 0 min 0 min 0,0 UV-I 0 W/m 20,6 km/h (4 Bft)
02.01.2014 07:20 9,6 C 7,8 C 88 % 995,9 hPa 0,0 l/m 0 min 0 min 0,0 UV-I 0 W/m 15,4 km/h (3 Bft)
02.01.2014 07:22 9,6 C 7,8 C 88 % 995,9 hPa 0,0 l/m 0 min 0 min 0,0 UV-I 0 W/m 23,2 km/h (4 Bft)
02.01.2014 07:24 9,6 C 7,8 C 88 % 995,9 hPa 0,0 l/m 0 min 0 min 0,0 UV-I 0 W/m 18,0 km/h (3 Bft)
02.01.2014 07:26 9,6 C 7,8 C 88 % 996,0 hPa 0,0 l/m 0 min 0 min 0,0 UV-I 0 W/m 25,7 km/h (4 Bft)
02.01.2014 07:28 9,6 C 7,8 C 88 % 995,9 hPa 0,0 l/m 0 min 0 min 0,0 UV-I 0 W/m 23,2 km/h (4 Bft)
02.01.2014 07:30 9,6 C 7,8 C 88 % 995,9 hPa 0,0 l/m 0 min 0 min 0,0 UV-I 0 W/m 18,0 km/h (3 Bft)
02.01.2014 07:32 9,6 C 7,8 C 88 % 995,9 hPa 0,0 l/m 0 min 0 min 0,0 UV-I 0 W/m 20,6 km/h (4 Bft)
02.01.2014 07:34 9,6 C 7,8 C 88 % 995,9 hPa 0,0 l/m 0 min 0 min 0,0 UV-I 0 W/m 28,3 km/h (4 Bft)
02.01.2014 07:36 9,7 C 7,8 C 87 % 996,0 hPa 0,0 l/m 0 min 0 min 0,0 UV-I 0 W/m 18,0 km/h (3 Bft)
02.01.2014 07:38 9,7 C 7,8 C 87 % 995,9 hPa 0,0 l/m 0 min 0 min 0,0 UV-I 0 W/m 15,4 km/h (3 Bft)
02.01.2014 07:40 9,7 C 7,8 C 87 % 995,9 hPa 0,0 l/m 0 min 0 min 0,0 UV-I 0 W/m 12,9 km/h (3 Bft)
02.01.2014 07:42 9,7 C 7,8 C 87 % 995,9 hPa 0,0 l/m 0 min 0 min 0,0 UV-I 0 W/m 23,2 km/h (4 Bft)
02.01.2014 07:44 9,7 C 7,8 C 87 % 995,9 hPa 0,0 l/m 0 min 0 min 0,0 UV-I 0 W/m 15,4 km/h (3 Bft)
02.01.2014 07:46 9,7 C 7,8 C 87 % 995,9 hPa 0,0 l/m 0 min 0 min 0,0 UV-I 0 W/m 15,4 km/h (3 Bft)
02.01.2014 07:48 9,7 C 7,8 C 87 % 995,9 hPa 0,0 l/m 0 min 0 min 0,0 UV-I 0 W/m 20,6 km/h (4 Bft)
02.01.2014 07:50 9,7 C 7,8 C 87 % 996,0 hPa 0,0 l/m 0 min 0 min 0,0 UV-I 0 W/m 25,7 km/h (4 Bft)
02.01.2014 07:52 9,7 C 7,8 C 87 % 996,0 hPa 0,0 l/m 0 min 0 min 0,0 UV-I 0 W/m 12,9 km/h (3 Bft)
02.01.2014 07:54 9,7 C 7,8 C 87 % 996,0 hPa 0,0 l/m 0 min 0 min 0,0 UV-I 0 W/m 18,0 km/h (3 Bft)
02.01.2014 07:56 9,7 C 7,8 C 87 % 996,0 hPa 0,0 l/m 0 min 0 min 0,0 UV-I 0 W/m 30,9 km/h (5 Bft)
02.01.2014 07:58 9,7 C 7,8 C 87 % 996,1 hPa 0,0 l/m 0 min 0 min 0,0 UV-I 0 W/m 18,0 km/h (3 Bft)
02.01.2014 08:00 9,7 C 7,8 C 87 % 996,1 hPa 0,0 l/m 0 min 0 min 0,0 UV-I 0 W/m 23,2 km/h (4 Bft)
02.01.2014 08:02 9,7 C 7,8 C 87 % 996,1 hPa 0,0 l/m 0 min 0 min 0,0 UV-I 0 W/m 15,4 km/h (3 Bft)
02.01.2014 08:04 9,7 C 7,8 C 87 % 996,1 hPa 0,0 l/m 0 min 0 min 0,0 UV-I 0 W/m 12,9 km/h (3 Bft)
02.01.2014 08:06 9,7 C 7,8 C 87 % 996,2 hPa 0,0 l/m 0 min 0 min 0,0 UV-I 0 W/m 12,9 km/h (3 Bft)
02.01.2014 08:08 9,7 C 7,8 C 87 % 996,0 hPa 0,0 l/m 0 min 0 min 0,0 UV-I 0 W/m 15,4 km/h (3 Bft)
02.01.2014 08:10 9,7 C 7,8 C 87 % 996,0 hPa 0,0 l/m 0 min 0 min 0,0 UV-I 0 W/m 15,4 km/h (3 Bft)
02.01.2014 08:12 9,7 C 7,8 C 87 % 996,1 hPa 0,0 l/m 0 min 0 min 0,0 UV-I 0 W/m 15,4 km/h (3 Bft)
02.01.2014 08:14 9,7 C 7,8 C 87 % 996,1 hPa 0,0 l/m 0 min 0 min 0,0 UV-I 0 W/m 15,4 km/h (3 Bft)
02.01.2014 08:16 9,7 C 7,8 C 87 % 996,1 hPa 0,0 l/m 0 min 0 min 0,0 UV-I 0 W/m 10,3 km/h (2 Bft)
02.01.2014 08:18 9,7 C 7,8 C 87 % 996,0 hPa 0,0 l/m 0 min 0 min 0,0 UV-I 0 W/m 18,0 km/h (3 Bft)
02.01.2014 08:20 9,7 C 7,8 C 87 % 996,0 hPa 0,0 l/m 0 min 0 min 0,0 UV-I 0 W/m 12,9 km/h (3 Bft)
02.01.2014 08:22 9,7 C 7,8 C 87 % 996,1 hPa 0,0 l/m 0 min 0 min 0,0 UV-I 0 W/m 15,4 km/h (3 Bft)
02.01.2014 08:24 9,7 C 7,8 C 87 % 996,1 hPa 0,0 l/m 0 min 0 min 0,0 UV-I 0 W/m 23,2 km/h (4 Bft)
02.01.2014 08:26 9,7 C 7,8 C 87 % 996,1 hPa 0,0 l/m 0 min 0 min 0,0 UV-I 0 W/m 18,0 km/h (3 Bft)
02.01.2014 08:28 9,7 C 7,8 C 87 % 996,2 hPa 0,0 l/m 0 min 0 min 0,0 UV-I 0 W/m 15,4 km/h (3 Bft)
02.01.2014 08:30 9,7 C 7,8 C 87 % 996,3 hPa 0,0 l/m 0 min 0 min 0,0 UV-I 0 W/m 18,0 km/h (3 Bft)
02.01.2014 08:32 9,7 C 7,8 C 87 % 996,2 hPa 0,0 l/m 0 min 0 min 0,0 UV-I 0 W/m 12,9 km/h (3 Bft)
02.01.2014 08:34 9,7 C 7,8 C 86 % 996,2 hPa 0,0 l/m 0 min 0 min 0,0 UV-I 0 W/m 15,4 km/h (3 Bft)
02.01.2014 08:36 9,7 C 7,8 C 86 % 996,3 hPa 0,0 l/m 0 min 0 min 0,0 UV-I 0 W/m 10,3 km/h (2 Bft)
02.01.2014 08:38 9,7 C 7,8 C 86 % 996,2 hPa 0,0 l/m 0 min 0 min 0,0 UV-I 0 W/m 10,3 km/h (2 Bft)
02.01.2014 08:40 9,8 C 7,8 C 86 % 996,3 hPa 0,0 l/m 0 min 0 min 0,0 UV-I 0 W/m 10,3 km/h (2 Bft)
02.01.2014 08:42 9,7 C 7,8 C 86 % 996,3 hPa 0,0 l/m 0 min 0 min 0,0 UV-I 0 W/m 15,4 km/h (3 Bft)
02.01.2014 08:44 9,7 C 7,8 C 86 % 996,4 hPa 0,0 l/m 0 min 0 min 0,0 UV-I 0 W/m 10,3 km/h (2 Bft)
02.01.2014 08:46 9,7 C 7,8 C 87 % 996,3 hPa 0,0 l/m 0 min 0 min 0,0 UV-I 0 W/m 12,9 km/h (3 Bft)
02.01.2014 08:48 9,7 C 7,8 C 87 % 996,4 hPa 0,0 l/m 0 min 0 min 0,0 UV-I 0 W/m 7,7 km/h (2 Bft)
02.01.2014 08:50 9,7 C 7,8 C 87 % 996,4 hPa 0,0 l/m 0 min 0 min 0,0 UV-I 0 W/m 12,9 km/h (3 Bft)
02.01.2014 08:52 9,7 C 7,8 C 87 % 996,4 hPa 0,0 l/m 0 min 0 min 0,0 UV-I 0 W/m 12,9 km/h (3 Bft)
02.01.2014 08:54 9,7 C 7,2 C 87 % 996,5 hPa 0,0 l/m 0 min 0 min 0,0 UV-I 0 W/m 5,1 km/h (1 Bft)
02.01.2014 08:56 9,6 C 7,2 C 87 % 996,5 hPa 0,0 l/m 0 min 0 min 0,0 UV-I 0 W/m 2,6 km/h (1 Bft)
02.01.2014 08:58 9,6 C 7,2 C 87 % 996,6 hPa 0,0 l/m 0 min 0 min 0,0 UV-I 0 W/m 10,3 km/h (2 Bft)
02.01.2014 09:00 9,6 C 7,2 C 87 % 996,5 hPa 0,0 l/m 0 min 2 min 0,0 UV-I 0 W/m 7,7 km/h (2 Bft)
02.01.2014 09:02 9,6 C 7,2 C 87 % 996,6 hPa 0,0 l/m 0 min 2 min 0,0 UV-I 0 W/m 7,7 km/h (2 Bft)
02.01.2014 09:04 9,6 C 7,2 C 87 % 996,6 hPa 0,0 l/m 0 min 2 min 0,0 UV-I 0 W/m 18,0 km/h (3 Bft)
02.01.2014 09:06 9,6 C 7,2 C 88 % 996,6 hPa 0,0 l/m 0 min 0 min 0,0 UV-I 7 W/m 7,7 km/h (2 Bft)
02.01.2014 09:08 9,5 C 7,2 C 88 % 996,6 hPa 0,0 l/m 0 min 0 min 0,0 UV-I 9 W/m 10,3 km/h (2 Bft)
02.01.2014 09:10 9,5 C 7,2 C 88 % 996,6 hPa 0,0 l/m 0 min 0 min 0,0 UV-I 9 W/m 7,7 km/h (2 Bft)
02.01.2014 09:12 9,5 C 7,2 C 88 % 996,6 hPa 0,0 l/m 0 min 0 min 0,0 UV-I 9 W/m 12,9 km/h (3 Bft)
02.01.2014 09:14 9,4 C 7,2 C 88 % 996,6 hPa 0,0 l/m 0 min 0 min 0,0 UV-I 7 W/m 18,0 km/h (3 Bft)
02.01.2014 09:16 9,4 C 7,2 C 88 % 996,8 hPa 0,0 l/m 0 min 0 min 0,0 UV-I 7 W/m 15,4 km/h (3 Bft)
02.01.2014 09:18 9,4 C 7,2 C 88 % 996,8 hPa 0,0 l/m 0 min 0 min 0,0 UV-I 7 W/m 12,9 km/h (3 Bft)
02.01.2014 09:20 9,4 C 7,2 C 88 % 996,7 hPa 0,0 l/m 0 min 0 min 0,0 UV-I 7 W/m 12,9 km/h (3 Bft)
02.01.2014 09:22 9,4 C 7,2 C 88 % 996,8 hPa 0,0 l/m 0 min 0 min 0,0 UV-I 5 W/m 10,3 km/h (2 Bft)
02.01.2014 09:24 9,4 C 7,2 C 88 % 996,8 hPa 0,0 l/m 0 min 0 min 0,0 UV-I 7 W/m 2,6 km/h (1 Bft)
02.01.2014 09:26 9,4 C 7,2 C 88 % 996,8 hPa 0,0 l/m 0 min 2 min 0,0 UV-I 9 W/m 18,0 km/h (3 Bft)
02.01.2014 09:28 9,5 C 7,2 C 88 % 996,7 hPa 0,0 l/m 0 min 0 min 0,0 UV-I 9 W/m 12,9 km/h (3 Bft)
02.01.2014 09:30 9,4 C 7,2 C 88 % 996,8 hPa 0,0 l/m 0 min 0 min 0,0 UV-I 12 W/m 7,7 km/h (2 Bft)
02.01.2014 09:32 9,5 C 7,2 C 88 % 996,9 hPa 0,0 l/m 0 min 0 min 0,0 UV-I 14 W/m 7,7 km/h (2 Bft)
02.01.2014 09:34 9,5 C 7,2 C 88 % 996,9 hPa 0,0 l/m 0 min 0 min 0,0 UV-I 14 W/m 12,9 km/h (3 Bft)
02.01.2014 09:36 9,5 C 7,2 C 88 % 996,8 hPa 0,0 l/m 0 min 0 min 0,0 UV-I 12 W/m 15,4 km/h (3 Bft)
02.01.2014 09:38 9,5 C 7,2 C 88 % 996,8 hPa 0,0 l/m 0 min 0 min 0,0 UV-I 9 W/m 12,9 km/h (3 Bft)
02.01.2014 09:40 9,5 C 7,2 C 88 % 996,8 hPa 0,0 l/m 0 min 0 min 0,0 UV-I 9 W/m 12,9 km/h (3 Bft)
02.01.2014 09:42 9,5 C 7,2 C 88 % 996,7 hPa 0,0 l/m 0 min 0 min 0,0 UV-I 9 W/m 15,4 km/h (3 Bft)
02.01.2014 09:44 9,5 C 7,2 C 88 % 996,7 hPa 0,0 l/m 0 min 2 min 0,0 UV-I 7 W/m 18,0 km/h (3 Bft)
02.01.2014 09:46 9,5 C 7,2 C 88 % 996,7 hPa 0,0 l/m 0 min 0 min 0,0 UV-I 7 W/m 10,3 km/h (2 Bft)
02.01.2014 09:48 9,5 C 7,2 C 88 % 996,7 hPa 0,0 l/m 0 min 2 min 0,0 UV-I 7 W/m 18,0 km/h (3 Bft)
02.01.2014 09:50 9,6 C 7,2 C 88 % 996,7 hPa 0,0 l/m 0 min 2 min 0,0 UV-I 9 W/m 12,9 km/h (3 Bft)
02.01.2014 09:52 9,6 C 7,2 C 88 % 996,6 hPa 0,0 l/m 0 min 2 min 0,0 UV-I 9 W/m 10,3 km/h (2 Bft)
02.01.2014 09:54 9,6 C 7,2 C 88 % 996,7 hPa 0,0 l/m 0 min 2 min 0,0 UV-I 11 W/m 15,4 km/h (3 Bft)
02.01.2014 09:56 9,6 C 7,2 C 88 % 996,7 hPa 0,0 l/m 0 min 0 min 0,0 UV-I 9 W/m 7,7 km/h (2 Bft)
02.01.2014 09:58 9,6 C 7,2 C 89 % 996,6 hPa 0,0 l/m 0 min 0 min 0,0 UV-I 7 W/m 12,9 km/h (3 Bft)
02.01.2014 10:00 9,6 C 7,2 C 89 % 996,6 hPa 0,0 l/m 0 min 0 min 0,0 UV-I 9 W/m 5,1 km/h (1 Bft)
02.01.2014 10:02 9,6 C 7,2 C 89 % 996,5 hPa 0,0 l/m 0 min 0 min 0,0 UV-I 11 W/m 10,3 km/h (2 Bft)
02.01.2014 10:04 9,6 C 7,2 C 89 % 996,5 hPa 0,0 l/m 0 min 0 min 0,0 UV-I 12 W/m 10,3 km/h (2 Bft)
02.01.2014 10:06 9,5 C 7,2 C 89 % 996,5 hPa 0,0 l/m 0 min 0 min 0,0 UV-I 12 W/m 12,9 km/h (3 Bft)
02.01.2014 10:08 9,5 C 7,2 C 89 % 996,5 hPa 0,0 l/m 0 min 0 min 0,0 UV-I 12 W/m 15,4 km/h (3 Bft)
02.01.2014 10:10 9,5 C 7,2 C 89 % 996,5 hPa 0,0 l/m 0 min 0 min 0,0 UV-I 14 W/m 15,4 km/h (3 Bft)
02.01.2014 10:12 9,5 C 7,2 C 88 % 996,5 hPa 0,0 l/m 0 min 0 min 0,0 UV-I 14 W/m 15,4 km/h (3 Bft)
02.01.2014 10:14 9,5 C 7,2 C 89 % 996,5 hPa 0,0 l/m 0 min 0 min 0,0 UV-I 16 W/m 10,3 km/h (2 Bft)
02.01.2014 10:16 9,5 C 7,2 C 89 % 996,5 hPa 0,0 l/m 0 min 0 min 0,0 UV-I 11 W/m 7,7 km/h (2 Bft)
02.01.2014 10:18 9,5 C 7,2 C 89 % 996,6 hPa 0,0 l/m 0 min 0 min 0,0 UV-I 9 W/m 15,4 km/h (3 Bft)
02.01.2014 10:20 9,5 C 7,2 C 88 % 996,7 hPa 0,0 l/m 0 min 2 min 0,0 UV-I 9 W/m 23,2 km/h (4 Bft)
02.01.2014 10:22 9,6 C 7,2 C 89 % 996,7 hPa 0,2 l/m 0 min 2 min 0,0 UV-I 9 W/m 23,2 km/h (4 Bft)
02.01.2014 10:24 9,6 C 7,2 C 89 % 996,7 hPa 0,0 l/m 0 min 2 min 0,0 UV-I 14 W/m 12,9 km/h (3 Bft)
02.01.2014 10:26 9,6 C 7,2 C 89 % 996,6 hPa 0,0 l/m 0 min 2 min 0,0 UV-I 18 W/m 15,4 km/h (3 Bft)
02.01.2014 10:28 9,6 C 7,2 C 89 % 996,6 hPa 0,2 l/m 0 min 2 min 0,0 UV-I 16 W/m 25,7 km/h (4 Bft)
02.01.2014 10:30 9,6 C 7,2 C 90 % 996,7 hPa 0,0 l/m 0 min 2 min 0,0 UV-I 18 W/m 18,0 km/h (3 Bft)
02.01.2014 10:32 9,6 C 7,2 C 90 % 996,7 hPa 0,0 l/m 0 min 2 min 0,0 UV-I 14 W/m 20,6 km/h (4 Bft)
02.01.2014 10:34 9,5 C 7,2 C 90 % 996,6 hPa 0,0 l/m 0 min 2 min 0,0 UV-I 14 W/m 12,9 km/h (3 Bft)
02.01.2014 10:36 9,5 C 7,2 C 90 % 996,7 hPa 0,0 l/m 0 min 2 min 0,0 UV-I 12 W/m 18,0 km/h (3 Bft)
02.01.2014 10:38 9,4 C 7,2 C 90 % 996,8 hPa 0,0 l/m 0 min 0 min 0,0 UV-I 11 W/m 12,9 km/h (3 Bft)
02.01.2014 10:40 9,4 C 7,2 C 90 % 996,8 hPa 0,0 l/m 0 min 2 min 0,0 UV-I 12 W/m 15,4 km/h (3 Bft)
02.01.2014 10:42 9,4 C 7,2 C 91 % 996,7 hPa 0,0 l/m 0 min 0 min 0,0 UV-I 14 W/m 12,9 km/h (3 Bft)
02.01.2014 10:44 9,4 C 7,2 C 91 % 996,6 hPa 0,0 l/m 0 min 0 min 0,0 UV-I 12 W/m 10,3 km/h (2 Bft)
02.01.2014 10:46 9,4 C 7,2 C 91 % 996,7 hPa 0,0 l/m 0 min 0 min 0,0 UV-I 12 W/m 23,2 km/h (4 Bft)
02.01.2014 10:48 9,3 C 7,2 C 91 % 996,6 hPa 0,0 l/m 0 min 0 min 0,0 UV-I 12 W/m 12,9 km/h (3 Bft)
02.01.2014 10:50 9,3 C 7,2 C 91 % 996,8 hPa 0,0 l/m 0 min 2 min 0,0 UV-I 14 W/m 15,4 km/h (3 Bft)
02.01.2014 10:52 9,3 C 7,2 C 91 % 996,8 hPa 0,0 l/m 0 min 2 min 0,0 UV-I 16 W/m 23,2 km/h (4 Bft)
02.01.2014 10:54 9,3 C 7,2 C 91 % 996,7 hPa 0,0 l/m 0 min 2 min 0,0 UV-I 16 W/m 15,4 km/h (3 Bft)
02.01.2014 10:56 9,3 C 7,2 C 91 % 996,8 hPa 0,0 l/m 0 min 0 min 0,0 UV-I 14 W/m 18,0 km/h (3 Bft)
02.01.2014 10:58 9,3 C 7,2 C 91 % 996,8 hPa 0,0 l/m 0 min 0 min 0,0 UV-I 12 W/m 18,0 km/h (3 Bft)
02.01.2014 11:00 9,3 C 7,2 C 91 % 996,8 hPa 0,0 l/m 0 min 0 min 0,0 UV-I 14 W/m 12,9 km/h (3 Bft)
02.01.2014 11:02 9,3 C 7,2 C 91 % 996,9 hPa 0,0 l/m 0 min 0 min 0,0 UV-I 14 W/m 12,9 km/h (3 Bft)
02.01.2014 11:04 9,3 C 7,2 C 91 % 996,9 hPa 0,0 l/m 0 min 0 min 0,0 UV-I 14 W/m 15,4 km/h (3 Bft)
02.01.2014 11:06 9,3 C 7,2 C 91 % 996,9 hPa 0,0 l/m 0 min 0 min 0,0 UV-I 16 W/m 15,4 km/h (3 Bft)
02.01.2014 11:08 9,3 C 7,2 C 91 % 996,9 hPa 0,0 l/m 0 min 0 min 0,0 UV-I 16 W/m 18,0 km/h (3 Bft)
02.01.2014 11:10 9,3 C 7,2 C 91 % 996,9 hPa 0,0 l/m 0 min 0 min 0,0 UV-I 18 W/m 15,4 km/h (3 Bft)
02.01.2014 11:12 9,3 C 7,2 C 91 % 996,8 hPa 0,0 l/m 0 min 2 min 0,0 UV-I 19 W/m 18,0 km/h (3 Bft)
02.01.2014 11:14 9,3 C 7,2 C 91 % 996,9 hPa 0,0 l/m 0 min 2 min 0,0 UV-I 18 W/m 20,6 km/h (4 Bft)
02.01.2014 11:16 9,3 C 7,2 C 91 % 997,0 hPa 0,0 l/m 0 min 0 min 0,0 UV-I 21 W/m 12,9 km/h (3 Bft)
02.01.2014 11:18 9,3 C 7,2 C 91 % 997,0 hPa 0,0 l/m 0 min 0 min 0,0 UV-I 28 W/m 15,4 km/h (3 Bft)
02.01.2014 11:20 9,4 C 7,2 C 91 % 997,0 hPa 0,0 l/m 0 min 2 min 0,0 UV-I 39 W/m 10,3 km/h (2 Bft)
02.01.2014 11:22 9,4 C 7,2 C 91 % 997,0 hPa 0,0 l/m 0 min 0 min 0,0 UV-I 42 W/m 20,6 km/h (4 Bft)
02.01.2014 11:24 9,4 C 7,2 C 91 % 997,0 hPa 0,0 l/m 0 min 2 min 0,0 UV-I 35 W/m 23,2 km/h (4 Bft)
02.01.2014 11:26 9,5 C 7,2 C 91 % 997,1 hPa 0,0 l/m 0 min 0 min 0,0 UV-I 30 W/m 25,7 km/h (4 Bft)
02.01.2014 11:28 9,5 C 7,2 C 91 % 997,1 hPa 0,0 l/m 0 min 2 min 0,0 UV-I 19 W/m 20,6 km/h (4 Bft)
02.01.2014 11:30 9,6 C 7,2 C 91 % 997,4 hPa 0,2 l/m 0 min 2 min 0,0 UV-I 16 W/m 18,0 km/h (3 Bft)
02.01.2014 11:32 9,6 C 7,2 C 91 % 997,3 hPa 0,0 l/m 0 min 2 min 0,0 UV-I 25 W/m 15,4 km/h (3 Bft)
02.01.2014 11:34 9,6 C 7,2 C 91 % 997,2 hPa 0,2 l/m 0 min 2 min 0,0 UV-I 21 W/m 30,9 km/h (5 Bft)
02.01.2014 11:36 9,6 C 7,2 C 91 % 997,3 hPa 0,0 l/m 0 min 2 min 0,0 UV-I 25 W/m 18,0 km/h (3 Bft)
02.01.2014 11:38 9,6 C 7,2 C 91 % 997,3 hPa 0,0 l/m 0 min 2 min 0,0 UV-I 25 W/m 10,3 km/h (2 Bft)
02.01.2014 11:40 9,6 C 7,2 C 91 % 997,4 hPa 0,0 l/m 0 min 2 min 0,0 UV-I 28 W/m 12,9 km/h (3 Bft)
02.01.2014 11:42 9,6 C 7,2 C 91 % 997,3 hPa 0,2 l/m 0 min 2 min 0,0 UV-I 26 W/m 10,3 km/h (2 Bft)
02.01.2014 11:44 9,6 C 7,2 C 92 % 997,5 hPa 0,0 l/m 0 min 2 min 0,0 UV-I 37 W/m 10,3 km/h (2 Bft)
02.01.2014 11:46 9,6 C 7,2 C 92 % 997,4 hPa 0,2 l/m 0 min 2 min 0,0 UV-I 39 W/m 15,4 km/h (3 Bft)
02.01.2014 11:48 9,5 C 7,2 C 92 % 997,4 hPa 0,0 l/m 0 min 2 min 0,0 UV-I 51 W/m 41,2 km/h (6 Bft)
02.01.2014 11:50 9,5 C 7,2 C 92 % 997,5 hPa 0,0 l/m 0 min 2 min 0,0 UV-I 62 W/m 25,7 km/h (4 Bft)
02.01.2014 11:52 9,4 C 7,2 C 92 % 997,6 hPa 0,0 l/m 0 min 2 min 0,0 UV-I 63 W/m 20,6 km/h (4 Bft)
02.01.2014 11:54 9,4 C 7,2 C 92 % 997,5 hPa 0,2 l/m 0 min 2 min 0,0 UV-I 56 W/m 25,7 km/h (4 Bft)
02.01.2014 11:56 9,4 C 7,2 C 92 % 997,6 hPa 0,0 l/m 0 min 2 min 0,0 UV-I 54 W/m 23,2 km/h (4 Bft)
02.01.2014 11:58 9,4 C 7,2 C 92 % 997,6 hPa 0,2 l/m 0 min 2 min 0,0 UV-I 40 W/m 23,2 km/h (4 Bft)
02.01.2014 12:00 9,4 C 7,2 C 93 % 997,6 hPa 0,0 l/m 0 min 2 min 0,0 UV-I 40 W/m 15,4 km/h (3 Bft)
02.01.2014 12:02 9,3 C 7,2 C 93 % 997,7 hPa 0,0 l/m 0 min 2 min 0,0 UV-I 35 W/m 15,4 km/h (3 Bft)
02.01.2014 12:04 9,3 C 7,2 C 93 % 997,7 hPa 0,0 l/m 0 min 2 min 0,0 UV-I 28 W/m 12,9 km/h (3 Bft)
02.01.2014 12:06 9,3 C 7,2 C 93 % 997,9 hPa 0,2 l/m 0 min 2 min 0,0 UV-I 28 W/m 25,7 km/h (4 Bft)
02.01.2014 12:08 9,3 C 7,2 C 93 % 997,8 hPa 0,0 l/m 0 min 2 min 0,0 UV-I 30 W/m 36,0 km/h (5 Bft)
02.01.2014 12:10 9,2 C 7,2 C 93 % 997,8 hPa 0,0 l/m 0 min 2 min 0,0 UV-I 63 W/m 12,9 km/h (3 Bft)
02.01.2014 12:12 9,2 C 7,2 C 93 % 997,9 hPa 0,0 l/m 0 min 2 min 0,0 UV-I 74 W/m 20,6 km/h (4 Bft)
02.01.2014 12:14 9,2 C 7,8 C 93 % 997,8 hPa 0,0 l/m 2 min 0 min 0,0 UV-I 153 W/m 12,9 km/h (3 Bft)
02.01.2014 12:16 9,3 C 7,8 C 94 % 997,9 hPa 0,0 l/m 2 min 2 min 0,0 UV-I 257 W/m 10,3 km/h (2 Bft)
02.01.2014 12:18 9,3 C 8,3 C 94 % 997,9 hPa 0,0 l/m 2 min 0 min 0,0 UV-I 295 W/m 20,6 km/h (4 Bft)
02.01.2014 12:20 9,5 C 8,3 C 94 % 997,8 hPa 0,0 l/m 2 min 0 min 0,0 UV-I 225 W/m 15,4 km/h (3 Bft)
02.01.2014 12:22 9,6 C 8,3 C 94 % 997,9 hPa 0,0 l/m 2 min 0 min 0,0 UV-I 220 W/m 15,4 km/h (3 Bft)
02.01.2014 12:24 9,6 C 8,3 C 94 % 998,0 hPa 0,0 l/m 2 min 0 min 0,0 UV-I 276 W/m 15,4 km/h (3 Bft)
02.01.2014 12:26 9,7 C 8,9 C 94 % 998,0 hPa 0,0 l/m 2 min 2 min 0,0 UV-I 197 W/m 23,2 km/h (4 Bft)
02.01.2014 12:28 9,8 C 8,3 C 94 % 998,0 hPa 0,0 l/m 0 min 0 min 0,0 UV-I 125 W/m 18,0 km/h (3 Bft)
02.01.2014 12:30 9,8 C 8,3 C 94 % 998,0 hPa 0,0 l/m 0 min 2 min 0,0 UV-I 62 W/m 28,3 km/h (4 Bft)
02.01.2014 12:32 9,8 C 8,3 C 94 % 998,0 hPa 0,0 l/m 0 min 2 min 0,0 UV-I 63 W/m 18,0 km/h (3 Bft)
02.01.2014 12:34 9,7 C 8,3 C 94 % 998,1 hPa 0,0 l/m 0 min 0 min 0,0 UV-I 56 W/m 28,3 km/h (4 Bft)
02.01.2014 12:36 9,7 C 8,3 C 94 % 998,2 hPa 0,0 l/m 0 min 0 min 0,0 UV-I 69 W/m 23,2 km/h (4 Bft)
02.01.2014 12:38 9,7 C 7,8 C 93 % 998,5 hPa 0,0 l/m 0 min 0 min 0,0 UV-I 51 W/m 18,0 km/h (3 Bft)
02.01.2014 12:40 9,7 C 7,8 C 93 % 998,3 hPa 0,0 l/m 0 min 0 min 0,0 UV-I 76 W/m 28,3 km/h (4 Bft)
02.01.2014 12:42 9,7 C 7,8 C 93 % 998,2 hPa 0,0 l/m 0 min 0 min 0,0 UV-I 104 W/m 15,4 km/h (3 Bft)
02.01.2014 12:44 9,7 C 8,3 C 93 % 998,3 hPa 0,0 l/m 0 min 0 min 0,0 UV-I 86 W/m 23,2 km/h (4 Bft)
02.01.2014 12:46 9,7 C 8,3 C 93 % 998,4 hPa 0,0 l/m 0 min 0 min 0,0 UV-I 67 W/m 25,7 km/h (4 Bft)
02.01.2014 12:48 9,7 C 7,8 C 92 % 998,4 hPa 0,0 l/m 0 min 0 min 0,0 UV-I 69 W/m 18,0 km/h (3 Bft)
02.01.2014 12:50 9,7 C 8,3 C 92 % 998,6 hPa 0,0 l/m 0 min 0 min 0,0 UV-I 77 W/m 15,4 km/h (3 Bft)
02.01.2014 12:52 9,8 C 8,3 C 95 % 998,5 hPa 0,0 l/m 0 min 0 min 0,0 UV-I 105 W/m 10,3 km/h (2 Bft)
02.01.2014 12:54 9,8 C 8,3 C 92 % 998,6 hPa 0,0 l/m 0 min 0 min 0,0 UV-I 107 W/m 23,2 km/h (4 Bft)
02.01.2014 12:56 9,8 C 8,3 C 92 % 998,6 hPa 0,0 l/m 0 min 0 min 0,0 UV-I 107 W/m 20,6 km/h (4 Bft)
02.01.2014 12:58 9,8 C 8,3 C 91 % 998,7 hPa 0,0 l/m 0 min 0 min 0,0 UV-I 107 W/m 18,0 km/h (3 Bft)
02.01.2014 13:00 9,8 C 8,3 C 91 % 998,7 hPa 0,0 l/m 0 min 0 min 0,0 UV-I 109 W/m 18,0 km/h (3 Bft)
02.01.2014 13:02 9,9 C 8,3 C 90 % 998,6 hPa 0,0 l/m 0 min 0 min 0,0 UV-I 116 W/m 30,9 km/h (5 Bft)
02.01.2014 13:04 9,9 C 8,3 C 90 % 999,0 hPa 0,0 l/m 0 min 0 min 0,0 UV-I 91 W/m 33,5 km/h (5 Bft)
02.01.2014 13:06 9,9 C 8,3 C 89 % 998,8 hPa 0,0 l/m 0 min 0 min 0,0 UV-I 88 W/m 10,3 km/h (2 Bft)
02.01.2014 13:08 9,9 C 8,3 C 89 % 998,9 hPa 0,0 l/m 0 min 0 min 0,0 UV-I 88 W/m 10,3 km/h (2 Bft)
02.01.2014 13:10 9,9 C 8,3 C 89 % 999,1 hPa 0,0 l/m 0 min 0 min 0,0 UV-I 81 W/m 30,9 km/h (5 Bft)
02.01.2014 13:12 9,9 C 8,3 C 89 % 998,8 hPa 0,0 l/m 0 min 0 min 0,0 UV-I 70 W/m 18,0 km/h (3 Bft)
02.01.2014 13:14 9,9 C 8,3 C 89 % 999,1 hPa 0,0 l/m 0 min 0 min 0,0 UV-I 53 W/m 23,2 km/h (4 Bft)
02.01.2014 13:16 9,9 C 8,3 C 88 % 999,1 hPa 0,0 l/m 0 min 0 min 0,0 UV-I 44 W/m 20,6 km/h (4 Bft)
02.01.2014 13:18 9,9 C 8,3 C 88 % 998,9 hPa 0,0 l/m 0 min 0 min 0,0 UV-I 42 W/m 23,2 km/h (4 Bft)
02.01.2014 13:20 9,9 C 8,3 C 88 % 999,0 hPa 0,0 l/m 0 min 0 min 0,0 UV-I 40 W/m 25,7 km/h (4 Bft)
02.01.2014 13:22 9,9 C 8,3 C 88 % 999,0 hPa 0,0 l/m 0 min 0 min 0,0 UV-I 49 W/m 18,0 km/h (3 Bft)
02.01.2014 13:24 9,9 C 8,3 C 88 % 999,0 hPa 0,0 l/m 0 min 0 min 0,0 UV-I 54 W/m 18,0 km/h (3 Bft)
02.01.2014 13:26 9,9 C 7,8 C 88 % 999,1 hPa 0,0 l/m 0 min 0 min 0,0 UV-I 62 W/m 15,4 km/h (3 Bft)
02.01.2014 13:28 9,9 C 8,3 C 88 % 999,1 hPa 0,0 l/m 0 min 0 min 0,0 UV-I 62 W/m 20,6 km/h (4 Bft)
02.01.2014 13:30 9,9 C 8,3 C 88 % 999,1 hPa 0,0 l/m 0 min 0 min 0,0 UV-I 56 W/m 7,7 km/h (2 Bft)
02.01.2014 13:32 9,9 C 8,3 C 88 % 999,1 hPa 0,0 l/m 0 min 0 min 0,0 UV-I 42 W/m 10,3 km/h (2 Bft)
02.01.2014 13:34 9,9 C 8,3 C 88 % 999,2 hPa 0,0 l/m 0 min 0 min 0,0 UV-I 37 W/m 2,6 km/h (1 Bft)
02.01.2014 13:36 9,9 C 7,8 C 88 % 999,2 hPa 0,0 l/m 0 min 0 min 0,0 UV-I 32 W/m 12,9 km/h (3 Bft)
02.01.2014 13:38 9,9 C 7,8 C 88 % 999,3 hPa 0,0 l/m 0 min 0 min 0,0 UV-I 37 W/m 18,0 km/h (3 Bft)
02.01.2014 13:40 9,9 C 8,3 C 88 % 999,3 hPa 0,0 l/m 0 min 0 min 0,0 UV-I 54 W/m 20,6 km/h (4 Bft)
02.01.2014 13:42 9,9 C 8,3 C 87 % 999,3 hPa 0,0 l/m 0 min 0 min 0,0 UV-I 56 W/m 20,6 km/h (4 Bft)
02.01.2014 13:44 9,9 C 8,3 C 86 % 999,4 hPa 0,0 l/m 0 min 0 min 0,0 UV-I 47 W/m 23,2 km/h (4 Bft)
02.01.2014 13:46 9,9 C 8,3 C 86 % 999,3 hPa 0,0 l/m 0 min 0 min 0,0 UV-I 60 W/m 20,6 km/h (4 Bft)
02.01.2014 13:48 10,0 C 8,3 C 86 % 999,5 hPa 0,0 l/m 0 min 0 min 0,0 UV-I 79 W/m 20,6 km/h (4 Bft)
02.01.2014 13:50 10,0 C 8,3 C 86 % 999,4 hPa 0,0 l/m 0 min 0 min 0,0 UV-I 56 W/m 10,3 km/h (2 Bft)
02.01.2014 13:52 10,0 C 8,3 C 86 % 999,6 hPa 0,0 l/m 0 min 0 min 0,0 UV-I 53 W/m 12,9 km/h (3 Bft)
02.01.2014 13:54 10,0 C 8,3 C 85 % 999,7 hPa 0,0 l/m 0 min 0 min 0,0 UV-I 56 W/m 18,0 km/h (3 Bft)
02.01.2014 13:56 10,1 C 8,3 C 85 % 999,7 hPa 0,0 l/m 0 min 0 min 0,0 UV-I 79 W/m 12,9 km/h (3 Bft)
02.01.2014 13:58 10,1 C 8,3 C 85 % 999,6 hPa 0,0 l/m 0 min 0 min 0,0 UV-I 90 W/m 12,9 km/h (3 Bft)
02.01.2014 14:00 10,1 C 8,3 C 84 % 999,7 hPa 0,0 l/m 0 min 0 min 0,0 UV-I 77 W/m 23,2 km/h (4 Bft)
02.01.2014 14:02 10,2 C 8,3 C 83 % 999,8 hPa 0,0 l/m 0 min 0 min 0,0 UV-I 84 W/m 12,9 km/h (3 Bft)
02.01.2014 14:04 10,2 C 8,3 C 83 % 999,8 hPa 0,0 l/m 0 min 0 min 0,0 UV-I 74 W/m 10,3 km/h (2 Bft)
02.01.2014 14:06 10,2 C 8,3 C 83 % 999,8 hPa 0,0 l/m 0 min 0 min 0,0 UV-I 54 W/m 2,6 km/h (1 Bft)
02.01.2014 14:08 10,2 C 8,3 C 84 % 999,9 hPa 0,0 l/m 0 min 0 min 0,0 UV-I 51 W/m 10,3 km/h (2 Bft)
02.01.2014 14:10 10,2 C 8,3 C 84 % 999,8 hPa 0,0 l/m 0 min 0 min 0,0 UV-I 58 W/m 10,3 km/h (2 Bft)
02.01.2014 14:12 10,1 C 8,3 C 83 % 999,9 hPa 0,0 l/m 0 min 0 min 0,0 UV-I 51 W/m 10,3 km/h (2 Bft)
02.01.2014 14:14 10,1 C 7,8 C 83 % 1000,0 hPa 0,0 l/m 0 min 0 min 0,0 UV-I 28 W/m 7,7 km/h (2 Bft)
02.01.2014 14:16 10,1 C 7,8 C 84 % 1000,1 hPa 0,0 l/m 0 min 0 min 0,0 UV-I 33 W/m 7,7 km/h (2 Bft)
02.01.2014 14:18 10,0 C 7,8 C 84 % 1000,2 hPa 0,0 l/m 0 min 0 min 0,0 UV-I 33 W/m 10,3 km/h (2 Bft)
02.01.2014 14:20 9,9 C 7,8 C 84 % 1000,1 hPa 0,0 l/m 0 min 0 min 0,0 UV-I 49 W/m 7,7 km/h (2 Bft)
02.01.2014 14:22 9,9 C 7,8 C 84 % 1000,2 hPa 0,0 l/m 0 min 0 min 0,0 UV-I 51 W/m 12,9 km/h (3 Bft)
02.01.2014 14:24 9,9 C 7,8 C 85 % 1000,2 hPa 0,0 l/m 0 min 0 min 0,0 UV-I 62 W/m 10,3 km/h (2 Bft)
02.01.2014 14:26 9,8 C 7,8 C 85 % 1000,4 hPa 0,0 l/m 0 min 0 min 0,0 UV-I 32 W/m 12,9 km/h (3 Bft)
02.01.2014 14:28 9,8 C 7,8 C 85 % 1000,3 hPa 0,0 l/m 0 min 0 min 0,0 UV-I 26 W/m 10,3 km/h (2 Bft)
02.01.2014 14:30 9,8 C 7,8 C 85 % 1000,5 hPa 0,0 l/m 0 min 0 min 0,0 UV-I 25 W/m 10,3 km/h (2 Bft)
02.01.2014 14:32 9,7 C 7,8 C 85 % 1000,6 hPa 0,0 l/m 0 min 0 min 0,0 UV-I 54 W/m 20,6 km/h (4 Bft)
02.01.2014 14:34 9,8 C 8,3 C 85 % 1000,6 hPa 0,0 l/m 0 min 0 min 0,0 UV-I 107 W/m 18,0 km/h (3 Bft)
02.01.2014 14:36 9,8 C 8,3 C 85 % 1000,6 hPa 0,0 l/m 0 min 0 min 0,0 UV-I 90 W/m 10,3 km/h (2 Bft)
02.01.2014 14:38 9,9 C 8,3 C 85 % 1000,7 hPa 0,0 l/m 0 min 0 min 0,0 UV-I 76 W/m 20,6 km/h (4 Bft)
02.01.2014 14:40 9,9 C 8,3 C 84 % 1000,7 hPa 0,0 l/m 0 min 0 min 0,0 UV-I 90 W/m 18,0 km/h (3 Bft)
02.01.2014 14:42 9,9 C 8,3 C 84 % 1000,8 hPa 0,0 l/m 0 min 0 min 0,0 UV-I 79 W/m 10,3 km/h (2 Bft)
02.01.2014 14:44 10,0 C 8,3 C 84 % 1000,7 hPa 0,0 l/m 0 min 0 min 0,0 UV-I 65 W/m 10,3 km/h (2 Bft)
02.01.2014 14:46 10,0 C 8,3 C 84 % 1000,9 hPa 0,0 l/m 0 min 0 min 0,0 UV-I 42 W/m 12,9 km/h (3 Bft)
02.01.2014 14:48 10,0 C 8,3 C 84 % 1000,9 hPa 0,0 l/m 0 min 0 min 0,0 UV-I 53 W/m 10,3 km/h (2 Bft)
02.01.2014 14:50 10,0 C 8,3 C 85 % 1000,9 hPa 0,0 l/m 0 min 0 min 0,0 UV-I 65 W/m 12,9 km/h (3 Bft)
02.01.2014 14:52 9,9 C 8,3 C 85 % 1001,0 hPa 0,0 l/m 0 min 0 min 0,0 UV-I 60 W/m 10,3 km/h (2 Bft)
02.01.2014 14:54 9,9 C 8,3 C 84 % 1001,0 hPa 0,0 l/m 0 min 0 min 0,0 UV-I 47 W/m 18,0 km/h (3 Bft)
02.01.2014 14:56 9,9 C 8,3 C 84 % 1001,0 hPa 0,0 l/m 0 min 0 min 0,0 UV-I 60 W/m 7,7 km/h (2 Bft)
02.01.2014 14:58 9,9 C 8,3 C 83 % 1001,1 hPa 0,0 l/m 0 min 0 min 0,0 UV-I 72 W/m 10,3 km/h (2 Bft)
02.01.2014 15:00 10,0 C 8,3 C 83 % 1001,1 hPa 0,0 l/m 2 min 0 min 0,0 UV-I 98 W/m 7,7 km/h (2 Bft)
02.01.2014 15:02 10,0 C 8,3 C 83 % 1001,2 hPa 0,0 l/m 0 min 0 min 0,0 UV-I 70 W/m 7,7 km/h (2 Bft)
02.01.2014 15:04 10,0 C 8,3 C 83 % 1001,2 hPa 0,0 l/m 0 min 0 min 0,0 UV-I 72 W/m 10,3 km/h (2 Bft)
02.01.2014 15:06 10,0 C 8,3 C 82 % 1001,3 hPa 0,0 l/m 0 min 0 min 0,0 UV-I 86 W/m 20,6 km/h (4 Bft)
02.01.2014 15:08 10,0 C 8,3 C 82 % 1001,3 hPa 0,0 l/m 0 min 0 min 0,0 UV-I 72 W/m 23,2 km/h (4 Bft)
02.01.2014 15:10 10,0 C 8,3 C 82 % 1001,3 hPa 0,0 l/m 0 min 0 min 0,0 UV-I 46 W/m 15,4 km/h (3 Bft)
02.01.2014 15:12 10,0 C 8,3 C 82 % 1001,3 hPa 0,0 l/m 0 min 0 min 0,0 UV-I 49 W/m 0,0 km/h (0 Bft)
02.01.2014 15:14 9,9 C 8,3 C 82 % 1001,4 hPa 0,0 l/m 0 min 0 min 0,0 UV-I 49 W/m 15,4 km/h (3 Bft)
02.01.2014 15:16 9,9 C 8,3 C 82 % 1001,5 hPa 0,0 l/m 0 min 0 min 0,0 UV-I 53 W/m 10,3 km/h (2 Bft)
02.01.2014 15:18 9,9 C 8,3 C 81 % 1001,5 hPa 0,0 l/m 0 min 0 min 0,0 UV-I 46 W/m 23,2 km/h (4 Bft)
02.01.2014 15:20 9,9 C 7,8 C 81 % 1001,5 hPa 0,0 l/m 0 min 0 min 0,0 UV-I 46 W/m 12,9 km/h (3 Bft)
02.01.2014 15:22 9,9 C 7,8 C 81 % 1001,6 hPa 0,0 l/m 0 min 0 min 0,0 UV-I 37 W/m 7,7 km/h (2 Bft)
02.01.2014 15:24 9,9 C 7,8 C 81 % 1001,6 hPa 0,0 l/m 0 min 0 min 0,0 UV-I 33 W/m 15,4 km/h (3 Bft)
02.01.2014 15:26 9,8 C 7,8 C 81 % 1001,6 hPa 0,0 l/m 0 min 0 min 0,0 UV-I 28 W/m 7,7 km/h (2 Bft)
02.01.2014 15:28 9,8 C 7,8 C 81 % 1001,6 hPa 0,0 l/m 0 min 0 min 0,0 UV-I 30 W/m 2,6 km/h (1 Bft)
02.01.2014 15:30 9,8 C 7,8 C 81 % 1001,7 hPa 0,0 l/m 0 min 0 min 0,0 UV-I 32 W/m 18,0 km/h (3 Bft)
02.01.2014 15:32 9,7 C 7,8 C 81 % 1001,8 hPa 0,0 l/m 0 min 0 min 0,0 UV-I 30 W/m 7,7 km/h (2 Bft)
02.01.2014 15:34 9,7 C 7,8 C 81 % 1001,8 hPa 0,0 l/m 0 min 0 min 0,0 UV-I 26 W/m 7,7 km/h (2 Bft)
02.01.2014 15:36 9,7 C 7,8 C 81 % 1001,8 hPa 0,0 l/m 0 min 0 min 0,0 UV-I 23 W/m 5,1 km/h (1 Bft)
02.01.2014 15:38 9,6 C 7,8 C 81 % 1001,9 hPa 0,0 l/m 0 min 0 min 0,0 UV-I 23 W/m 5,1 km/h (1 Bft)
02.01.2014 15:40 9,6 C 7,8 C 81 % 1001,9 hPa 0,0 l/m 0 min 0 min 0,0 UV-I 21 W/m 12,9 km/h (3 Bft)
02.01.2014 15:42 9,6 C 7,2 C 81 % 1002,0 hPa 0,0 l/m 0 min 0 min 0,0 UV-I 19 W/m 5,1 km/h (1 Bft)
02.01.2014 15:44 9,5 C 7,8 C 82 % 1001,9 hPa 0,0 l/m 0 min 0 min 0,0 UV-I 25 W/m 10,3 km/h (2 Bft)
02.01.2014 15:46 9,5 C 7,8 C 82 % 1002,0 hPa 0,0 l/m 0 min 0 min 0,0 UV-I 26 W/m 0,0 km/h (0 Bft)
02.01.2014 15:48 9,5 C 7,8 C 82 % 1001,9 hPa 0,0 l/m 0 min 0 min 0,0 UV-I 23 W/m 2,6 km/h (1 Bft)
02.01.2014 15:50 9,5 C 7,8 C 82 % 1001,9 hPa 0,0 l/m 0 min 0 min 0,0 UV-I 18 W/m 12,9 km/h (3 Bft)
02.01.2014 15:52 9,5 C 7,8 C 82 % 1002,1 hPa 0,0 l/m 0 min 0 min 0,0 UV-I 16 W/m 10,3 km/h (2 Bft)
02.01.2014 15:54 9,5 C 7,8 C 82 % 1002,1 hPa 0,0 l/m 0 min 0 min 0,0 UV-I 12 W/m 5,1 km/h (1 Bft)
02.01.2014 15:56 9,5 C 7,8 C 82 % 1002,1 hPa 0,0 l/m 0 min 0 min 0,0 UV-I 12 W/m 15,4 km/h (3 Bft)
02.01.2014 15:58 9,5 C 7,8 C 82 % 1002,3 hPa 0,0 l/m 0 min 0 min 0,0 UV-I 9 W/m 7,7 km/h (2 Bft)
02.01.2014 16:00 9,5 C 7,8 C 82 % 1002,2 hPa 0,0 l/m 0 min 0 min 0,0 UV-I 7 W/m 7,7 km/h (2 Bft)
02.01.2014 16:02 9,5 C 7,8 C 82 % 1002,3 hPa 0,0 l/m 0 min 0 min 0,0 UV-I 7 W/m 5,1 km/h (1 Bft)
02.01.2014 16:04 9,5 C 7,8 C 82 % 1002,3 hPa 0,0 l/m 0 min 0 min 0,0 UV-I 7 W/m 10,3 km/h (2 Bft)
02.01.2014 16:06 9,5 C 7,8 C 82 % 1002,3 hPa 0,0 l/m 0 min 0 min 0,0 UV-I 5 W/m 7,7 km/h (2 Bft)
02.01.2014 16:08 9,5 C 7,8 C 81 % 1002,4 hPa 0,0 l/m 0 min 2 min 0,0 UV-I 5 W/m 10,3 km/h (2 Bft)
02.01.2014 16:10 9,5 C 7,2 C 82 % 1002,4 hPa 0,0 l/m 0 min 2 min 0,0 UV-I 5 W/m 5,1 km/h (1 Bft)
02.01.2014 16:12 9,5 C 7,2 C 82 % 1002,7 hPa 0,2 l/m 0 min 2 min 0,0 UV-I 5 W/m 12,9 km/h (3 Bft)
02.01.2014 16:14 9,5 C 6,7 C 83 % 1002,6 hPa 0,0 l/m 0 min 2 min 0,0 UV-I 5 W/m 18,0 km/h (3 Bft)
02.01.2014 16:16 9,5 C 6,7 C 84 % 1002,8 hPa 0,2 l/m 0 min 2 min 0,0 UV-I 7 W/m 7,7 km/h (2 Bft)
02.01.2014 16:18 9,4 C 6,7 C 84 % 1002,8 hPa 0,2 l/m 0 min 2 min 0,0 UV-I 7 W/m 10,3 km/h (2 Bft)
02.01.2014 16:20 9,4 C 6,7 C 85 % 1002,7 hPa 0,2 l/m 0 min 2 min 0,0 UV-I 7 W/m 2,6 km/h (1 Bft)
02.01.2014 16:22 9,3 C 6,7 C 86 % 1002,7 hPa 0,0 l/m 0 min 2 min 0,0 UV-I 0 W/m 10,3 km/h (2 Bft)
02.01.2014 16:24 9,2 C 6,7 C 86 % 1002,7 hPa 0,2 l/m 0 min 2 min 0,0 UV-I 5 W/m 2,6 km/h (1 Bft)
02.01.2014 16:26 9,2 C 6,1 C 87 % 1002,7 hPa 0,0 l/m 0 min 2 min 0,0 UV-I 5 W/m 0,0 km/h (0 Bft)
02.01.2014 16:28 9,1 C 6,1 C 87 % 1002,8 hPa 0,0 l/m 0 min 2 min 0,0 UV-I 5 W/m 2,6 km/h (1 Bft)
02.01.2014 16:30 9,1 C 6,1 C 87 % 1002,9 hPa 0,0 l/m 0 min 0 min 0,0 UV-I 5 W/m 7,7 km/h (2 Bft)
02.01.2014 16:32 9,0 C 6,1 C 88 % 1002,9 hPa 0,0 l/m 0 min 2 min 0,0 UV-I 0 W/m 7,7 km/h (2 Bft)
02.01.2014 16:34 8,9 C 6,1 C 88 % 1002,9 hPa 0,0 l/m 0 min 2 min 0,0 UV-I 0 W/m 5,1 km/h (1 Bft)
02.01.2014 16:36 8,9 C 6,1 C 88 % 1002,9 hPa 0,0 l/m 0 min 2 min 0,0 UV-I 0 W/m 2,6 km/h (1 Bft)
02.01.2014 16:38 8,8 C 6,1 C 89 % 1003,0 hPa 0,0 l/m 0 min 0 min 0,0 UV-I 0 W/m 0,0 km/h (0 Bft)
02.01.2014 16:40 8,8 C 6,1 C 89 % 1003,0 hPa 0,0 l/m 0 min 2 min 0,0 UV-I 0 W/m 0,0 km/h (0 Bft)
02.01.2014 16:42 8,8 C 6,1 C 89 % 1003,0 hPa 0,0 l/m 0 min 0 min 0,0 UV-I 0 W/m 0,0 km/h (0 Bft)
02.01.2014 16:44 8,7 C 6,1 C 89 % 1002,9 hPa 0,0 l/m 0 min 0 min 0,0 UV-I 0 W/m 0,0 km/h (0 Bft)
02.01.2014 16:46 8,7 C 6,1 C 89 % 1003,0 hPa 0,0 l/m 0 min 0 min 0,0 UV-I 0 W/m 5,1 km/h (1 Bft)
02.01.2014 16:48 8,6 C 6,1 C 89 % 1003,0 hPa 0,0 l/m 0 min 0 min 0,0 UV-I 0 W/m 5,1 km/h (1 Bft)
02.01.2014 16:50 8,6 C 6,1 C 90 % 1003,0 hPa 0,0 l/m 0 min 0 min 0,0 UV-I 0 W/m 5,1 km/h (1 Bft)
02.01.2014 16:52 8,6 C 6,1 C 90 % 1003,0 hPa 0,0 l/m 0 min 0 min 0,0 UV-I 0 W/m 7,7 km/h (2 Bft)
02.01.2014 16:54 8,5 C 6,1 C 90 % 1003,1 hPa 0,0 l/m 0 min 0 min 0,0 UV-I 0 W/m 0,0 km/h (0 Bft)
02.01.2014 16:56 8,4 C 5,6 C 90 % 1003,1 hPa 0,0 l/m 0 min 0 min 0,0 UV-I 0 W/m 2,6 km/h (1 Bft)
02.01.2014 16:58 8,4 C 5,6 C 90 % 1003,1 hPa 0,0 l/m 0 min 0 min 0,0 UV-I 0 W/m 5,1 km/h (1 Bft)
02.01.2014 17:00 8,3 C 5,6 C 90 % 1003,2 hPa 0,0 l/m 0 min 0 min 0,0 UV-I 0 W/m 7,7 km/h (2 Bft)
02.01.2014 17:02 8,3 C 5,6 C 90 % 1003,2 hPa 0,0 l/m 0 min 0 min 0,0 UV-I 0 W/m 0,0 km/h (0 Bft)
02.01.2014 17:04 8,2 C 5,6 C 90 % 1003,3 hPa 0,0 l/m 0 min 0 min 0,0 UV-I 0 W/m 2,6 km/h (1 Bft)
02.01.2014 17:06 8,2 C 5,6 C 90 % 1003,3 hPa 0,0 l/m 0 min 0 min 0,0 UV-I 0 W/m 5,1 km/h (1 Bft)
02.01.2014 17:08 8,2 C 5,6 C 90 % 1003,3 hPa 0,0 l/m 0 min 0 min 0,0 UV-I 0 W/m 7,7 km/h (2 Bft)
02.01.2014 17:10 8,1 C 5,6 C 90 % 1003,3 hPa 0,0 l/m 0 min 0 min 0,0 UV-I 0 W/m 7,7 km/h (2 Bft)
02.01.2014 17:12 8,1 C 5,6 C 90 % 1003,3 hPa 0,0 l/m 0 min 0 min 0,0 UV-I 0 W/m 7,7 km/h (2 Bft)
02.01.2014 17:14 8,1 C 5,6 C 90 % 1003,4 hPa 0,0 l/m 0 min 0 min 0,0 UV-I 0 W/m 0,0 km/h (0 Bft)
02.01.2014 17:16 8,1 C 5,6 C 90 % 1003,4 hPa 0,0 l/m 0 min 0 min 0,0 UV-I 0 W/m 0,0 km/h (0 Bft)
02.01.2014 17:18 8,0 C 5,6 C 90 % 1003,4 hPa 0,0 l/m 0 min 0 min 0,0 UV-I 0 W/m 5,1 km/h (1 Bft)
02.01.2014 17:20 8,0 C 5,6 C 90 % 1003,4 hPa 0,0 l/m 0 min 0 min 0,0 UV-I 0 W/m 0,0 km/h (0 Bft)
02.01.2014 17:22 7,9 C 5,6 C 90 % 1003,4 hPa 0,0 l/m 0 min 0 min 0,0 UV-I 0 W/m 0,0 km/h (0 Bft)
02.01.2014 17:24 7,9 C 5,6 C 90 % 1003,5 hPa 0,0 l/m 0 min 0 min 0,0 UV-I 0 W/m 0,0 km/h (0 Bft)
02.01.2014 17:26 7,9 C 5,6 C 90 % 1003,5 hPa 0,0 l/m 0 min 0 min 0,0 UV-I 0 W/m 5,1 km/h (1 Bft)
02.01.2014 17:28 7,9 C 5,6 C 90 % 1003,5 hPa 0,0 l/m 0 min 0 min 0,0 UV-I 0 W/m 5,1 km/h (1 Bft)
02.01.2014 17:30 7,8 C 5,6 C 90 % 1003,5 hPa 0,0 l/m 0 min 0 min 0,0 UV-I 0 W/m 5,1 km/h (1 Bft)
02.01.2014 17:32 7,8 C 5,6 C 90 % 1003,5 hPa 0,0 l/m 0 min 0 min 0,0 UV-I 0 W/m 0,0 km/h (0 Bft)
02.01.2014 17:34 7,8 C 5,0 C 90 % 1003,6 hPa 0,0 l/m 0 min 0 min 0,0 UV-I 0 W/m 2,6 km/h (1 Bft)
02.01.2014 17:36 7,8 C 5,0 C 90 % 1003,6 hPa 0,0 l/m 0 min 0 min 0,0 UV-I 0 W/m 0,0 km/h (0 Bft)
02.01.2014 17:38 7,8 C 5,0 C 90 % 1003,7 hPa 0,0 l/m 0 min 0 min 0,0 UV-I 0 W/m 0,0 km/h (0 Bft)
02.01.2014 17:40 7,7 C 5,0 C 90 % 1003,7 hPa 0,0 l/m 0 min 0 min 0,0 UV-I 0 W/m 0,0 km/h (0 Bft)
02.01.2014 17:42 7,7 C 5,6 C 90 % 1003,8 hPa 0,0 l/m 0 min 0 min 0,0 UV-I 0 W/m 2,6 km/h (1 Bft)
02.01.2014 17:44 7,7 C 5,6 C 90 % 1003,8 hPa 0,0 l/m 0 min 0 min 0,0 UV-I 0 W/m 12,9 km/h (3 Bft)
02.01.2014 17:46 7,7 C 5,6 C 90 % 1003,8 hPa 0,0 l/m 0 min 0 min 0,0 UV-I 0 W/m 18,0 km/h (3 Bft)
02.01.2014 17:48 7,7 C 5,6 C 91 % 1003,7 hPa 0,0 l/m 0 min 0 min 0,0 UV-I 0 W/m 0,0 km/h (0 Bft)
02.01.2014 17:50 7,7 C 5,6 C 91 % 1003,8 hPa 0,0 l/m 0 min 0 min 0,0 UV-I 0 W/m 7,7 km/h (2 Bft)
02.01.2014 17:52 7,7 C 5,6 C 91 % 1003,9 hPa 0,0 l/m 0 min 0 min 0,0 UV-I 0 W/m 10,3 km/h (2 Bft)
02.01.2014 17:54 7,7 C 5,6 C 91 % 1003,9 hPa 0,0 l/m 0 min 0 min 0,0 UV-I 0 W/m 0,0 km/h (0 Bft)
02.01.2014 17:56 7,7 C 5,6 C 91 % 1003,9 hPa 0,0 l/m 0 min 0 min 0,0 UV-I 0 W/m 7,7 km/h (2 Bft)
02.01.2014 17:58 7,7 C 5,6 C 91 % 1003,9 hPa 0,0 l/m 0 min 0 min 0,0 UV-I 0 W/m 7,7 km/h (2 Bft)
02.01.2014 18:00 7,6 C 5,6 C 91 % 1003,9 hPa 0,0 l/m 0 min 0 min 0,0 UV-I 0 W/m 15,4 km/h (3 Bft)
02.01.2014 18:02 7,7 C 5,6 C 91 % 1003,9 hPa 0,0 l/m 0 min 0 min 0,0 UV-I 0 W/m 7,7 km/h (2 Bft)
02.01.2014 18:04 7,7 C 5,6 C 91 % 1003,9 hPa 0,0 l/m 0 min 0 min 0,0 UV-I 0 W/m 7,7 km/h (2 Bft)
02.01.2014 18:06 7,7 C 5,6 C 91 % 1003,9 hPa 0,0 l/m 0 min 0 min 0,0 UV-I 0 W/m 10,3 km/h (2 Bft)
02.01.2014 18:08 7,7 C 5,6 C 91 % 1004,0 hPa 0,0 l/m 0 min 0 min 0,0 UV-I 0 W/m 7,7 km/h (2 Bft)
02.01.2014 18:10 7,7 C 5,6 C 91 % 1003,9 hPa 0,0 l/m 0 min 0 min 0,0 UV-I 0 W/m 10,3 km/h (2 Bft)
02.01.2014 18:12 7,7 C 5,6 C 91 % 1003,9 hPa 0,0 l/m 0 min 0 min 0,0 UV-I 0 W/m 10,3 km/h (2 Bft)
02.01.2014 18:14 7,7 C 5,6 C 91 % 1004,0 hPa 0,0 l/m 0 min 0 min 0,0 UV-I 0 W/m 15,4 km/h (3 Bft)
02.01.2014 18:16 7,7 C 5,6 C 91 % 1004,0 hPa 0,0 l/m 0 min 0 min 0,0 UV-I 0 W/m 10,3 km/h (2 Bft)
02.01.2014 18:18 7,7 C 5,6 C 91 % 1004,0 hPa 0,0 l/m 0 min 0 min 0,0 UV-I 0 W/m 12,9 km/h (3 Bft)
02.01.2014 18:20 7,7 C 5,6 C 91 % 1004,1 hPa 0,0 l/m 0 min 0 min 0,0 UV-I 0 W/m 10,3 km/h (2 Bft)
02.01.2014 18:22 7,7 C 5,6 C 91 % 1004,1 hPa 0,0 l/m 0 min 0 min 0,0 UV-I 0 W/m 7,7 km/h (2 Bft)
02.01.2014 18:24 7,7 C 5,6 C 91 % 1004,1 hPa 0,0 l/m 0 min 0 min 0,0 UV-I 0 W/m 2,6 km/h (1 Bft)
02.01.2014 18:26 7,7 C 5,6 C 91 % 1004,0 hPa 0,0 l/m 0 min 0 min 0,0 UV-I 0 W/m 7,7 km/h (2 Bft)
02.01.2014 18:28 7,7 C 5,6 C 91 % 1004,2 hPa 0,0 l/m 0 min 0 min 0,0 UV-I 0 W/m 7,7 km/h (2 Bft)
02.01.2014 18:30 7,7 C 5,6 C 91 % 1004,2 hPa 0,0 l/m 0 min 0 min 0,0 UV-I 0 W/m 12,9 km/h (3 Bft)
02.01.2014 18:32 7,7 C 5,6 C 91 % 1004,1 hPa 0,0 l/m 0 min 0 min 0,0 UV-I 0 W/m 2,6 km/h (1 Bft)
02.01.2014 18:34 7,7 C 5,6 C 91 % 1004,1 hPa 0,0 l/m 0 min 0 min 0,0 UV-I 0 W/m 7,7 km/h (2 Bft)
02.01.2014 18:36 7,7 C 5,6 C 91 % 1004,2 hPa 0,0 l/m 0 min 0 min 0,0 UV-I 0 W/m 5,1 km/h (1 Bft)
02.01.2014 18:38 7,7 C 5,6 C 91 % 1004,2 hPa 0,0 l/m 0 min 0 min 0,0 UV-I 0 W/m 0,0 km/h (0 Bft)
02.01.2014 18:40 7,7 C 5,6 C 91 % 1004,2 hPa 0,0 l/m 0 min 0 min 0,0 UV-I 0 W/m 5,1 km/h (1 Bft)
02.01.2014 18:42 7,7 C 5,6 C 91 % 1004,3 hPa 0,0 l/m 0 min 0 min 0,0 UV-I 0 W/m 12,9 km/h (3 Bft)
02.01.2014 18:44 7,7 C 5,6 C 91 % 1004,3 hPa 0,0 l/m 0 min 0 min 0,0 UV-I 0 W/m 18,0 km/h (3 Bft)
02.01.2014 18:46 7,7 C 5,6 C 91 % 1004,3 hPa 0,0 l/m 0 min 0 min 0,0 UV-I 0 W/m 10,3 km/h (2 Bft)
02.01.2014 18:48 7,7 C 5,6 C 91 % 1004,3 hPa 0,0 l/m 0 min 0 min 0,0 UV-I 0 W/m 15,4 km/h (3 Bft)
02.01.2014 18:50 7,7 C 5,6 C 91 % 1004,3 hPa 0,0 l/m 0 min 0 min 0,0 UV-I 0 W/m 5,1 km/h (1 Bft)
02.01.2014 18:52 7,7 C 5,6 C 91 % 1004,4 hPa 0,0 l/m 0 min 0 min 0,0 UV-I 0 W/m 20,6 km/h (4 Bft)
02.01.2014 18:54 7,8 C 5,6 C 91 % 1004,4 hPa 0,0 l/m 0 min 0 min 0,0 UV-I 0 W/m 10,3 km/h (2 Bft)
02.01.2014 18:56 7,8 C 5,6 C 91 % 1004,5 hPa 0,0 l/m 0 min 0 min 0,0 UV-I 0 W/m 15,4 km/h (3 Bft)
02.01.2014 18:58 7,8 C 5,6 C 91 % 1004,5 hPa 0,0 l/m 0 min 0 min 0,0 UV-I 0 W/m 10,3 km/h (2 Bft)
02.01.2014 19:00 7,8 C 5,6 C 91 % 1004,6 hPa 0,0 l/m 0 min 0 min 0,0 UV-I 0 W/m 20,6 km/h (4 Bft)
02.01.2014 19:02 7,8 C 6,1 C 91 % 1004,6 hPa 0,0 l/m 0 min 0 min 0,0 UV-I 0 W/m 23,2 km/h (4 Bft)
02.01.2014 19:04 7,9 C 5,6 C 90 % 1004,5 hPa 0,0 l/m 0 min 0 min 0,0 UV-I 0 W/m 20,6 km/h (4 Bft)
02.01.2014 19:06 7,9 C 5,6 C 90 % 1004,5 hPa 0,0 l/m 0 min 0 min 0,0 UV-I 0 W/m 18,0 km/h (3 Bft)
02.01.2014 19:08 7,9 C 5,6 C 90 % 1004,5 hPa 0,0 l/m 0 min 0 min 0,0 UV-I 0 W/m 12,9 km/h (3 Bft)
02.01.2014 19:10 7,9 C 5,6 C 90 % 1004,5 hPa 0,0 l/m 0 min 0 min 0,0 UV-I 0 W/m 7,7 km/h (2 Bft)
02.01.2014 19:12 7,9 C 5,6 C 90 % 1004,5 hPa 0,0 l/m 0 min 0 min 0,0 UV-I 0 W/m 10,3 km/h (2 Bft)
02.01.2014 19:14 7,9 C 5,6 C 90 % 1004,5 hPa 0,0 l/m 0 min 0 min 0,0 UV-I 0 W/m 15,4 km/h (3 Bft)
02.01.2014 19:16 7,9 C 5,6 C 90 % 1004,7 hPa 0,0 l/m 0 min 0 min 0,0 UV-I 0 W/m 15,4 km/h (3 Bft)
02.01.2014 19:18 7,9 C 5,6 C 90 % 1004,7 hPa 0,0 l/m 0 min 0 min 0,0 UV-I 0 W/m 7,7 km/h (2 Bft)
02.01.2014 19:20 7,9 C 5,6 C 90 % 1004,7 hPa 0,0 l/m 0 min 0 min 0,0 UV-I 0 W/m 0,0 km/h (0 Bft)
02.01.2014 19:22 7,9 C 5,6 C 90 % 1004,7 hPa 0,0 l/m 0 min 0 min 0,0 UV-I 0 W/m 7,7 km/h (2 Bft)
02.01.2014 19:24 7,9 C 5,6 C 90 % 1004,7 hPa 0,0 l/m 0 min 0 min 0,0 UV-I 0 W/m 12,9 km/h (3 Bft)
02.01.2014 19:26 7,8 C 5,6 C 90 % 1004,8 hPa 0,0 l/m 0 min 0 min 0,0 UV-I 0 W/m 15,4 km/h (3 Bft)
02.01.2014 19:28 7,8 C 5,6 C 90 % 1004,8 hPa 0,0 l/m 0 min 0 min 0,0 UV-I 0 W/m 23,2 km/h (4 Bft)
02.01.2014 19:30 7,8 C 5,6 C 90 % 1004,8 hPa 0,0 l/m 0 min 0 min 0,0 UV-I 0 W/m 15,4 km/h (3 Bft)
02.01.2014 19:32 7,8 C 5,6 C 90 % 1004,9 hPa 0,0 l/m 0 min 0 min 0,0 UV-I 0 W/m 15,4 km/h (3 Bft)
02.01.2014 19:34 7,8 C 5,6 C 89 % 1004,9 hPa 0,0 l/m 0 min 0 min 0,0 UV-I 0 W/m 12,9 km/h (3 Bft)
02.01.2014 19:36 7,8 C 5,6 C 89 % 1004,9 hPa 0,0 l/m 0 min 0 min 0,0 UV-I 0 W/m 7,7 km/h (2 Bft)
02.01.2014 19:38 7,8 C 5,6 C 89 % 1004,9 hPa 0,0 l/m 0 min 0 min 0,0 UV-I 0 W/m 12,9 km/h (3 Bft)
02.01.2014 19:40 7,8 C 5,6 C 89 % 1004,9 hPa 0,0 l/m 0 min 0 min 0,0 UV-I 0 W/m 7,7 km/h (2 Bft)
02.01.2014 19:42 7,8 C 5,0 C 89 % 1004,9 hPa 0,0 l/m 0 min 0 min 0,0 UV-I 0 W/m 7,7 km/h (2 Bft)
02.01.2014 19:44 7,7 C 5,0 C 89 % 1004,9 hPa 0,0 l/m 0 min 0 min 0,0 UV-I 0 W/m 15,4 km/h (3 Bft)
02.01.2014 19:46 7,7 C 5,0 C 89 % 1005,0 hPa 0,0 l/m 0 min 0 min 0,0 UV-I 0 W/m 12,9 km/h (3 Bft)
02.01.2014 19:48 7,7 C 5,0 C 89 % 1005,1 hPa 0,0 l/m 0 min 0 min 0,0 UV-I 0 W/m 7,7 km/h (2 Bft)
02.01.2014 19:50 7,7 C 5,0 C 89 % 1005,0 hPa 0,0 l/m 0 min 0 min 0,0 UV-I 0 W/m 0,0 km/h (0 Bft)
02.01.2014 19:52 7,7 C 5,0 C 89 % 1005,0 hPa 0,0 l/m 0 min 0 min 0,0 UV-I 0 W/m 10,3 km/h (2 Bft)
02.01.2014 19:54 7,7 C 5,0 C 89 % 1005,0 hPa 0,0 l/m 0 min 0 min 0,0 UV-I 0 W/m 10,3 km/h (2 Bft)
02.01.2014 19:56 7,7 C 5,0 C 89 % 1005,0 hPa 0,0 l/m 0 min 0 min 0,0 UV-I 0 W/m 5,1 km/h (1 Bft)
02.01.2014 19:58 7,7 C 5,0 C 89 % 1005,0 hPa 0,0 l/m 0 min 0 min 0,0 UV-I 0 W/m 10,3 km/h (2 Bft)
02.01.2014 20:00 7,6 C 5,0 C 89 % 1005,0 hPa 0,0 l/m 0 min 0 min 0,0 UV-I 0 W/m 10,3 km/h (2 Bft)
02.01.2014 20:02 7,6 C 5,0 C 89 % 1005,0 hPa 0,0 l/m 0 min 0 min 0,0 UV-I 0 W/m 10,3 km/h (2 Bft)
02.01.2014 20:04 7,6 C 5,0 C 89 % 1005,1 hPa 0,0 l/m 0 min 0 min 0,0 UV-I 0 W/m 0,0 km/h (0 Bft)
02.01.2014 20:06 7,6 C 5,0 C 89 % 1005,1 hPa 0,0 l/m 0 min 0 min 0,0 UV-I 0 W/m 0,0 km/h (0 Bft)
02.01.2014 20:08 7,6 C 5,0 C 89 % 1005,1 hPa 0,0 l/m 0 min 0 min 0,0 UV-I 0 W/m 5,1 km/h (1 Bft)
02.01.2014 20:10 7,6 C 5,0 C 89 % 1005,2 hPa 0,0 l/m 0 min 0 min 0,0 UV-I 0 W/m 7,7 km/h (2 Bft)
02.01.2014 20:12 7,5 C 5,0 C 89 % 1005,1 hPa 0,0 l/m 0 min 0 min 0,0 UV-I 0 W/m 12,9 km/h (3 Bft)
02.01.2014 20:14 7,5 C 5,0 C 89 % 1005,1 hPa 0,0 l/m 0 min 0 min 0,0 UV-I 0 W/m 12,9 km/h (3 Bft)
02.01.2014 20:16 7,5 C 5,0 C 89 % 1005,1 hPa 0,0 l/m 0 min 0 min 0,0 UV-I 0 W/m 7,7 km/h (2 Bft)
02.01.2014 20:18 7,5 C 5,0 C 89 % 1005,1 hPa 0,0 l/m 0 min 0 min 0,0 UV-I 0 W/m 12,9 km/h (3 Bft)
02.01.2014 20:20 7,5 C 5,0 C 89 % 1005,1 hPa 0,0 l/m 0 min 0 min 0,0 UV-I 0 W/m 12,9 km/h (3 Bft)
02.01.2014 20:22 7,5 C 5,0 C 89 % 1005,1 hPa 0,0 l/m 0 min 0 min 0,0 UV-I 0 W/m 7,7 km/h (2 Bft)
02.01.2014 20:24 7,4 C 5,0 C 89 % 1005,2 hPa 0,0 l/m 0 min 0 min 0,0 UV-I 0 W/m 12,9 km/h (3 Bft)
02.01.2014 20:26 7,4 C 5,0 C 89 % 1005,2 hPa 0,0 l/m 0 min 0 min 0,0 UV-I 0 W/m 15,4 km/h (3 Bft)
02.01.2014 20:28 7,4 C 5,0 C 89 % 1005,2 hPa 0,0 l/m 0 min 0 min 0,0 UV-I 0 W/m 7,7 km/h (2 Bft)
02.01.2014 20:30 7,4 C 5,0 C 89 % 1005,2 hPa 0,0 l/m 0 min 0 min 0,0 UV-I 0 W/m 10,3 km/h (2 Bft)
02.01.2014 20:32 7,4 C 5,0 C 90 % 1005,2 hPa 0,0 l/m 0 min 0 min 0,0 UV-I 0 W/m 15,4 km/h (3 Bft)
02.01.2014 20:34 7,4 C 5,0 C 90 % 1005,2 hPa 0,0 l/m 0 min 0 min 0,0 UV-I 0 W/m 15,4 km/h (3 Bft)
02.01.2014 20:36 7,4 C 5,0 C 90 % 1005,2 hPa 0,0 l/m 0 min 0 min 0,0 UV-I 0 W/m 7,7 km/h (2 Bft)
02.01.2014 20:38 7,4 C 5,0 C 90 % 1005,3 hPa 0,0 l/m 0 min 0 min 0,0 UV-I 0 W/m 7,7 km/h (2 Bft)
02.01.2014 20:40 7,4 C 5,0 C 90 % 1005,3 hPa 0,0 l/m 0 min 0 min 0,0 UV-I 0 W/m 5,1 km/h (1 Bft)
02.01.2014 20:42 7,4 C 5,0 C 90 % 1005,3 hPa 0,0 l/m 0 min 0 min 0,0 UV-I 0 W/m 5,1 km/h (1 Bft)
02.01.2014 20:44 7,4 C 5,6 C 90 % 1005,2 hPa 0,0 l/m 0 min 0 min 0,0 UV-I 0 W/m 12,9 km/h (3 Bft)
02.01.2014 20:46 7,4 C 5,0 C 90 % 1005,3 hPa 0,0 l/m 0 min 0 min 0,0 UV-I 0 W/m 2,6 km/h (1 Bft)
02.01.2014 20:48 7,4 C 5,0 C 89 % 1005,4 hPa 0,0 l/m 0 min 0 min 0,0 UV-I 0 W/m 15,4 km/h (3 Bft)
02.01.2014 20:50 7,4 C 5,0 C 89 % 1005,4 hPa 0,0 l/m 0 min 0 min 0,0 UV-I 0 W/m 15,4 km/h (3 Bft)
02.01.2014 20:52 7,4 C 5,0 C 89 % 1005,4 hPa 0,0 l/m 0 min 0 min 0,0 UV-I 0 W/m 7,7 km/h (2 Bft)
02.01.2014 20:54 7,4 C 5,0 C 89 % 1005,4 hPa 0,0 l/m 0 min 0 min 0,0 UV-I 0 W/m 12,9 km/h (3 Bft)
02.01.2014 20:56 7,4 C 5,0 C 89 % 1005,4 hPa 0,0 l/m 0 min 0 min 0,0 UV-I 0 W/m 7,7 km/h (2 Bft)
02.01.2014 20:58 7,4 C 5,0 C 89 % 1005,4 hPa 0,0 l/m 0 min 0 min 0,0 UV-I 0 W/m 10,3 km/h (2 Bft)
02.01.2014 21:00 7,4 C 5,0 C 89 % 1005,4 hPa 0,0 l/m 0 min 0 min 0,0 UV-I 0 W/m 2,6 km/h (1 Bft)
02.01.2014 21:02 7,4 C 5,0 C 89 % 1005,4 hPa 0,0 l/m 0 min 0 min 0,0 UV-I 0 W/m 7,7 km/h (2 Bft)
02.01.2014 21:04 7,4 C 5,0 C 89 % 1005,4 hPa 0,0 l/m 0 min 0 min 0,0 UV-I 0 W/m 10,3 km/h (2 Bft)
02.01.2014 21:06 7,4 C 5,0 C 89 % 1005,4 hPa 0,0 l/m 0 min 0 min 0,0 UV-I 0 W/m 0,0 km/h (0 Bft)
02.01.2014 21:08 7,4 C 4,4 C 89 % 1005,4 hPa 0,0 l/m 0 min 0 min 0,0 UV-I 0 W/m 0,0 km/h (0 Bft)
02.01.2014 21:10 7,4 C 4,4 C 89 % 1005,5 hPa 0,0 l/m 0 min 0 min 0,0 UV-I 0 W/m 5,1 km/h (1 Bft)
02.01.2014 21:12 7,3 C 4,4 C 89 % 1005,5 hPa 0,0 l/m 0 min 0 min 0,0 UV-I 0 W/m 10,3 km/h (2 Bft)
02.01.2014 21:14 7,3 C 4,4 C 89 % 1005,5 hPa 0,0 l/m 0 min 0 min 0,0 UV-I 0 W/m 5,1 km/h (1 Bft)
02.01.2014 21:16 7,3 C 4,4 C 89 % 1005,5 hPa 0,0 l/m 0 min 0 min 0,0 UV-I 0 W/m 7,7 km/h (2 Bft)
02.01.2014 21:18 7,3 C 4,4 C 89 % 1005,4 hPa 0,0 l/m 0 min 0 min 0,0 UV-I 0 W/m 10,3 km/h (2 Bft)
02.01.2014 21:20 7,2 C 4,4 C 89 % 1005,4 hPa 0,0 l/m 0 min 0 min 0,0 UV-I 0 W/m 7,7 km/h (2 Bft)
02.01.2014 21:22 7,2 C 4,4 C 89 % 1005,5 hPa 0,0 l/m 0 min 0 min 0,0 UV-I 0 W/m 12,9 km/h (3 Bft)
02.01.2014 21:24 7,2 C 4,4 C 89 % 1005,5 hPa 0,0 l/m 0 min 0 min 0,0 UV-I 0 W/m 10,3 km/h (2 Bft)
02.01.2014 21:26 7,2 C 4,4 C 89 % 1005,5 hPa 0,0 l/m 0 min 0 min 0,0 UV-I 0 W/m 0,0 km/h (0 Bft)
02.01.2014 21:28 7,2 C 4,4 C 89 % 1005,5 hPa 0,0 l/m 0 min 0 min 0,0 UV-I 0 W/m 7,7 km/h (2 Bft)
02.01.2014 21:30 7,2 C 4,4 C 89 % 1005,4 hPa 0,0 l/m 0 min 0 min 0,0 UV-I 0 W/m 7,7 km/h (2 Bft)
02.01.2014 21:32 7,2 C 4,4 C 89 % 1005,5 hPa 0,0 l/m 0 min 0 min 0,0 UV-I 0 W/m 10,3 km/h (2 Bft)
02.01.2014 21:34 7,1 C 4,4 C 89 % 1005,5 hPa 0,0 l/m 0 min 0 min 0,0 UV-I 0 W/m 5,1 km/h (1 Bft)
02.01.2014 21:36 7,1 C 4,4 C 89 % 1005,5 hPa 0,0 l/m 0 min 0 min 0,0 UV-I 0 W/m 5,1 km/h (1 Bft)
02.01.2014 21:38 7,1 C 4,4 C 89 % 1005,5 hPa 0,0 l/m 0 min 0 min 0,0 UV-I 0 W/m 2,6 km/h (1 Bft)
02.01.2014 21:40 7,1 C 4,4 C 89 % 1005,5 hPa 0,0 l/m 0 min 0 min 0,0 UV-I 0 W/m 2,6 km/h (1 Bft)
02.01.2014 21:42 7,1 C 4,4 C 89 % 1005,5 hPa 0,0 l/m 0 min 0 min 0,0 UV-I 0 W/m 10,3 km/h (2 Bft)
02.01.2014 21:44 7,0 C 4,4 C 89 % 1005,5 hPa 0,0 l/m 0 min 0 min 0,0 UV-I 0 W/m 2,6 km/h (1 Bft)
02.01.2014 21:46 7,0 C 3,9 C 89 % 1005,5 hPa 0,0 l/m 0 min 0 min 0,0 UV-I 0 W/m 12,9 km/h (3 Bft)
02.01.2014 21:48 7,0 C 3,9 C 89 % 1005,5 hPa 0,0 l/m 0 min 0 min 0,0 UV-I 0 W/m 2,6 km/h (1 Bft)
02.01.2014 21:50 6,9 C 3,9 C 89 % 1005,5 hPa 0,0 l/m 0 min 0 min 0,0 UV-I 0 W/m 0,0 km/h (0 Bft)
02.01.2014 21:52 6,9 C 3,9 C 89 % 1005,5 hPa 0,0 l/m 0 min 0 min 0,0 UV-I 0 W/m 0,0 km/h (0 Bft)
02.01.2014 21:54 6,9 C 3,9 C 89 % 1005,5 hPa 0,0 l/m 0 min 0 min 0,0 UV-I 0 W/m 0,0 km/h (0 Bft)
02.01.2014 21:56 6,9 C 3,9 C 89 % 1005,4 hPa 0,0 l/m 0 min 0 min 0,0 UV-I 0 W/m 0,0 km/h (0 Bft)
02.01.2014 21:58 6,8 C 3,9 C 89 % 1005,4 hPa 0,0 l/m 0 min 0 min 0,0 UV-I 0 W/m 0,0 km/h (0 Bft)
02.01.2014 22:00 6,8 C 3,9 C 89 % 1005,5 hPa 0,0 l/m 0 min 0 min 0,0 UV-I 0 W/m 7,7 km/h (2 Bft)
02.01.2014 22:02 6,7 C 3,9 C 89 % 1005,5 hPa 0,0 l/m 0 min 0 min 0,0 UV-I 0 W/m 2,6 km/h (1 Bft)
02.01.2014 22:04 6,7 C 3,9 C 89 % 1005,5 hPa 0,0 l/m 0 min 0 min 0,0 UV-I 0 W/m 5,1 km/h (1 Bft)
02.01.2014 22:06 6,7 C 3,9 C 89 % 1005,5 hPa 0,0 l/m 0 min 0 min 0,0 UV-I 0 W/m 0,0 km/h (0 Bft)
02.01.2014 22:08 6,7 C 3,9 C 89 % 1005,5 hPa 0,0 l/m 0 min 0 min 0,0 UV-I 0 W/m 2,6 km/h (1 Bft)
02.01.2014 22:10 6,6 C 3,9 C 89 % 1005,6 hPa 0,0 l/m 0 min 0 min 0,0 UV-I 0 W/m 2,6 km/h (1 Bft)
02.01.2014 22:12 6,6 C 3,3 C 89 % 1005,6 hPa 0,0 l/m 0 min 0 min 0,0 UV-I 0 W/m 7,7 km/h (2 Bft)
02.01.2014 22:14 6,5 C 3,3 C 89 % 1005,5 hPa 0,0 l/m 0 min 0 min 0,0 UV-I 0 W/m 5,1 km/h (1 Bft)
02.01.2014 22:16 6,4 C 3,3 C 89 % 1005,5 hPa 0,0 l/m 0 min 0 min 0,0 UV-I 0 W/m 2,6 km/h (1 Bft)
02.01.2014 22:18 6,4 C 3,3 C 89 % 1005,6 hPa 0,0 l/m 0 min 0 min 0,0 UV-I 0 W/m 0,0 km/h (0 Bft)
02.01.2014 22:20 6,4 C 3,3 C 89 % 1005,6 hPa 0,0 l/m 0 min 0 min 0,0 UV-I 0 W/m 2,6 km/h (1 Bft)
02.01.2014 22:22 6,4 C 3,3 C 89 % 1005,6 hPa 0,0 l/m 0 min 0 min 0,0 UV-I 0 W/m 5,1 km/h (1 Bft)
02.01.2014 22:24 6,3 C 3,3 C 89 % 1005,6 hPa 0,0 l/m 0 min 0 min 0,0 UV-I 0 W/m 0,0 km/h (0 Bft)
02.01.2014 22:26 6,3 C 3,3 C 89 % 1005,7 hPa 0,0 l/m 0 min 0 min 0,0 UV-I 0 W/m 5,1 km/h (1 Bft)
02.01.2014 22:28 6,2 C 3,3 C 89 % 1005,8 hPa 0,0 l/m 0 min 0 min 0,0 UV-I 0 W/m 2,6 km/h (1 Bft)
02.01.2014 22:30 6,2 C 3,3 C 89 % 1005,7 hPa 0,0 l/m 0 min 0 min 0,0 UV-I 0 W/m 5,1 km/h (1 Bft)
02.01.2014 22:32 6,1 C 3,3 C 89 % 1005,6 hPa 0,0 l/m 0 min 0 min 0,0 UV-I 0 W/m 2,6 km/h (1 Bft)
02.01.2014 22:34 6,1 C 3,3 C 89 % 1005,6 hPa 0,0 l/m 0 min 0 min 0,0 UV-I 0 W/m 0,0 km/h (0 Bft)
02.01.2014 22:36 6,1 C 3,3 C 89 % 1005,6 hPa 0,0 l/m 0 min 0 min 0,0 UV-I 0 W/m 0,0 km/h (0 Bft)
02.01.2014 22:38 6,0 C 2,8 C 89 % 1005,6 hPa 0,0 l/m 0 min 0 min 0,0 UV-I 0 W/m 5,1 km/h (1 Bft)
02.01.2014 22:40 5,9 C 3,3 C 89 % 1005,6 hPa 0,0 l/m 0 min 0 min 0,0 UV-I 0 W/m 7,7 km/h (2 Bft)
02.01.2014 22:42 5,9 C 3,3 C 89 % 1005,6 hPa 0,0 l/m 0 min 0 min 0,0 UV-I 0 W/m 7,7 km/h (2 Bft)
02.01.2014 22:44 5,8 C 3,3 C 90 % 1005,6 hPa 0,0 l/m 0 min 0 min 0,0 UV-I 0 W/m 5,1 km/h (1 Bft)
02.01.2014 22:46 5,8 C 3,3 C 90 % 1005,6 hPa 0,0 l/m 0 min 0 min 0,0 UV-I 0 W/m 7,7 km/h (2 Bft)
02.01.2014 22:48 5,7 C 3,3 C 90 % 1005,6 hPa 0,0 l/m 0 min 0 min 0,0 UV-I 0 W/m 5,1 km/h (1 Bft)
02.01.2014 22:50 5,7 C 3,3 C 90 % 1005,7 hPa 0,0 l/m 0 min 0 min 0,0 UV-I 0 W/m 7,7 km/h (2 Bft)
02.01.2014 22:52 5,7 C 3,3 C 90 % 1005,6 hPa 0,0 l/m 0 min 0 min 0,0 UV-I 0 W/m 2,6 km/h (1 Bft)
02.01.2014 22:54 5,7 C 3,3 C 90 % 1005,6 hPa 0,0 l/m 0 min 0 min 0,0 UV-I 0 W/m 7,7 km/h (2 Bft)
02.01.2014 22:56 5,6 C 3,3 C 90 % 1005,6 hPa 0,0 l/m 0 min 0 min 0,0 UV-I 0 W/m 7,7 km/h (2 Bft)
02.01.2014 22:58 5,6 C 3,3 C 90 % 1005,6 hPa 0,0 l/m 0 min 0 min 0,0 UV-I 0 W/m 10,3 km/h (2 Bft)
02.01.2014 23:00 5,6 C 3,3 C 90 % 1005,5 hPa 0,0 l/m 0 min 0 min 0,0 UV-I 0 W/m 5,1 km/h (1 Bft)
02.01.2014 23:02 5,5 C 3,3 C 91 % 1005,6 hPa 0,0 l/m 0 min 0 min 0,0 UV-I 0 W/m 5,1 km/h (1 Bft)
02.01.2014 23:04 5,5 C 3,3 C 91 % 1005,6 hPa 0,0 l/m 0 min 0 min 0,0 UV-I 0 W/m 10,3 km/h (2 Bft)
02.01.2014 23:06 5,4 C 3,3 C 91 % 1005,6 hPa 0,0 l/m 0 min 0 min 0,0 UV-I 0 W/m 5,1 km/h (1 Bft)
02.01.2014 23:08 5,4 C 3,3 C 91 % 1005,6 hPa 0,0 l/m 0 min 0 min 0,0 UV-I 0 W/m 7,7 km/h (2 Bft)
02.01.2014 23:10 5,4 C 3,3 C 91 % 1005,6 hPa 0,0 l/m 0 min 0 min 0,0 UV-I 0 W/m 10,3 km/h (2 Bft)
02.01.2014 23:12 5,4 C 3,3 C 91 % 1005,6 hPa 0,0 l/m 0 min 0 min 0,0 UV-I 0 W/m 10,3 km/h (2 Bft)
02.01.2014 23:14 5,4 C 3,3 C 91 % 1005,6 hPa 0,0 l/m 0 min 0 min 0,0 UV-I 0 W/m 7,7 km/h (2 Bft)
02.01.2014 23:16 5,3 C 3,3 C 91 % 1005,6 hPa 0,0 l/m 0 min 0 min 0,0 UV-I 0 W/m 2,6 km/h (1 Bft)
02.01.2014 23:18 5,3 C 3,3 C 91 % 1005,7 hPa 0,0 l/m 0 min 0 min 0,0 UV-I 0 W/m 5,1 km/h (1 Bft)
02.01.2014 23:20 5,3 C 3,3 C 91 % 1005,6 hPa 0,0 l/m 0 min 0 min 0,0 UV-I 0 W/m 5,1 km/h (1 Bft)
02.01.2014 23:22 5,3 C 3,3 C 92 % 1005,6 hPa 0,0 l/m 0 min 0 min 0,0 UV-I 0 W/m 2,6 km/h (1 Bft)
02.01.2014 23:24 5,3 C 3,3 C 92 % 1005,6 hPa 0,0 l/m 0 min 0 min 0,0 UV-I 0 W/m 2,6 km/h (1 Bft)
02.01.2014 23:26 5,3 C 3,3 C 92 % 1005,6 hPa 0,0 l/m 0 min 0 min 0,0 UV-I 0 W/m 0,0 km/h (0 Bft)
02.01.2014 23:28 5,3 C 3,3 C 92 % 1005,6 hPa 0,0 l/m 0 min 0 min 0,0 UV-I 0 W/m 7,7 km/h (2 Bft)
02.01.2014 23:30 5,2 C 3,3 C 92 % 1005,5 hPa 0,0 l/m 0 min 0 min 0,0 UV-I 0 W/m 5,1 km/h (1 Bft)
02.01.2014 23:32 5,2 C 3,3 C 92 % 1005,6 hPa 0,0 l/m 0 min 0 min 0,0 UV-I 0 W/m 5,1 km/h (1 Bft)
02.01.2014 23:34 5,2 C 3,3 C 92 % 1005,5 hPa 0,0 l/m 0 min 0 min 0,0 UV-I 0 W/m 10,3 km/h (2 Bft)
02.01.2014 23:36 5,2 C 3,3 C 92 % 1005,6 hPa 0,0 l/m 0 min 0 min 0,0 UV-I 0 W/m 5,1 km/h (1 Bft)
02.01.2014 23:38 5,2 C 3,3 C 92 % 1005,6 hPa 0,0 l/m 0 min 0 min 0,0 UV-I 0 W/m 7,7 km/h (2 Bft)
02.01.2014 23:40 5,2 C 3,3 C 92 % 1005,6 hPa 0,0 l/m 0 min 0 min 0,0 UV-I 0 W/m 7,7 km/h (2 Bft)
02.01.2014 23:42 5,2 C 3,3 C 92 % 1005,6 hPa 0,0 l/m 0 min 0 min 0,0 UV-I 0 W/m 12,9 km/h (3 Bft)
02.01.2014 23:44 5,2 C 3,3 C 92 % 1005,6 hPa 0,0 l/m 0 min 0 min 0,0 UV-I 0 W/m 7,7 km/h (2 Bft)
02.01.2014 23:46 5,2 C 3,3 C 92 % 1005,6 hPa 0,0 l/m 0 min 0 min 0,0 UV-I 0 W/m 10,3 km/h (2 Bft)
02.01.2014 23:48 5,2 C 3,3 C 92 % 1005,6 hPa 0,0 l/m 0 min 0 min 0,0 UV-I 0 W/m 7,7 km/h (2 Bft)
02.01.2014 23:50 5,2 C 3,3 C 92 % 1005,6 hPa 0,0 l/m 0 min 0 min 0,0 UV-I 0 W/m 5,1 km/h (1 Bft)
02.01.2014 23:52 5,2 C 3,3 C 92 % 1005,6 hPa 0,0 l/m 0 min 0 min 0,0 UV-I 0 W/m 0,0 km/h (0 Bft)
02.01.2014 23:54 5,1 C 3,3 C 92 % 1005,5 hPa 0,0 l/m 0 min 0 min 0,0 UV-I 0 W/m 5,1 km/h (1 Bft)
02.01.2014 23:56 5,1 C 3,3 C 92 % 1005,5 hPa 0,0 l/m 0 min 0 min 0,0 UV-I 0 W/m 7,7 km/h (2 Bft)
02.01.2014 23:58 5,1 C 3,3 C 92 % 1005,5 hPa 0,0 l/m 0 min 0 min 0,0 UV-I 0 W/m 5,1 km/h (1 Bft)
_ Min-Zeit 23:54 22:38 15:18 05:48 - - - - - 15:12
Minimum _ 5,1 C 2,8 C 81 % 995,7 hPa - - - - - 0,0 km/h (0 Bft)
_ Max-Zeit 14:02 12:26 12:52 22:28 00:44 12:14 00:28 00:00 12:18 11:48
Maximum _ 10,2 C 8,9 C 95 % 1005,8 hPa 0,2 l/m 2 min 2 min 0,0 UV-I 295 W/m 41,2 km/h
S-SO (6 Bft)
Durchschnitt _ 8,8 C 6,5 C 88 % 999,9 hPa #3,6 l/m #16 min. #5:36 h 0,0 UV-I 43 W/m 13,8 km/h (3 Bft)
© 2014 W. Hausmann